Observation data for Clyde on 11/09/2019      Previous  Date       Current Mesonet Observations  Soil Data  Daily Summary Page  Observations in Plain Language
KCL2 090600Z 19004KT 05/04 A3031 RMK A01 T00530038  RH  090%=      5-min Rain = 0
KCL2 090601Z 19005KT 05/04 A3031 RMK A01 T00530038  RH  090%=      5-min Rain = 0
KCL2 090602Z 19005KT 05/04 A3031 RMK A01 T00520038  RH  090%=      5-min Rain = 0
KCL2 090603Z 19005KT 05/04 A3031 RMK A01 T00520038  RH  090%=      5-min Rain = 0
KCL2 090604Z 20005KT 05/04 A3031 RMK A01 T00530038  RH  091%=      5-min Rain = 0
KCL2 090605Z 19005KT 05/04 A3031 RMK A01 T00530039  RH  091%=      5-min Rain = 0
KCL2 090606Z 19005KT 05/04 A3031 RMK A01 T00520038  RH  091%=      5-min Rain = 0
KCL2 090607Z 20005KT 05/04 A3031 RMK A01 T00520037  RH  091%=      5-min Rain = 0
KCL2 090608Z 20005KT 05/04 A3031 RMK A01 T00510037  RH  091%=      5-min Rain = 0
KCL2 090609Z 20005KT 05/04 A3031 RMK A01 T00510036  RH  091%=      5-min Rain = 0
KCL2 090610Z 20005KT 05/04 A3031 RMK A01 T00500036  RH  091%=      5-min Rain = 0
KCL2 090611Z 20005KT 05/04 A303 RMK A01 T00500037  RH  091%=      5-min Rain = 0
KCL2 090612Z 20005KT 05/04 A303 RMK A01 T00500037  RH  091%=      5-min Rain = 0
KCL2 090613Z 20006KT 05/04 A303 RMK A01 T00490037  RH  091%=      5-min Rain = 0
KCL2 090614Z 20006KT 05/04 A303 RMK A01 T00490037  RH  092%=      5-min Rain = 0
KCL2 090615Z 21006KT 05/04 A303 RMK A01 T00490037  RH  092%=      5-min Rain = 0
KCL2 090616Z 21006KT 05/04 A303 RMK A01 T00490037  RH  092%=      5-min Rain = 0
KCL2 090617Z 21006KT 05/04 A303 RMK A01 T00490037  RH  092%=      5-min Rain = 0
KCL2 090618Z 21006KT 05/04 A303 RMK A01 T00490037  RH  092%=      5-min Rain = 0
KCL2 090619Z 21006KT 05/04 A303 RMK A01 T00490036  RH  092%=      5-min Rain = 0
KCL2 090620Z 21005KT 05/04 A303 RMK A01 T00490037  RH  092%=      5-min Rain = 0
KCL2 090621Z 21005KT 05/04 A303 RMK A01 T00490037  RH  092%=      5-min Rain = 0
KCL2 090622Z 21005KT 05/04 A303 RMK A01 T00490037  RH  092%=      5-min Rain = 0
KCL2 090623Z 21005KT 05/04 A303 RMK A01 T00490038  RH  092%=      5-min Rain = 0
KCL2 090624Z 21005KT 05/04 A303 RMK A01 T00490038  RH  092%=      5-min Rain = 0
KCL2 090625Z 21006KT 05/04 A303 RMK A01 T00490038  RH  092%=      5-min Rain = 0
KCL2 090626Z 21006KT 05/04 A303 RMK A01 T00490038  RH  092%=      5-min Rain = 0
KCL2 090627Z 21006KT 05/04 A303 RMK A01 T00490038  RH  092%=      5-min Rain = 0
KCL2 090628Z 21006KT 05/04 A303 RMK A01 T00500039  RH  093%=      5-min Rain = 0
KCL2 090629Z 21007KT 05/04 A303 RMK A01 T00500039  RH  093%=      5-min Rain = 0
KCL2 090630Z 21007KT 05/04 A303 RMK A01 T00510039  RH  093%=      5-min Rain = 0
KCL2 090631Z 21007KT 05/04 A303 RMK A01 T00520041  RH  093%=      5-min Rain = 0
KCL2 090632Z 21006KT 05/04 A303 RMK A01 T00520041  RH  093%=      5-min Rain = 0
KCL2 090633Z 21007KT 05/04 A303 RMK A01 T00530042  RH  092%=      5-min Rain = 0
KCL2 090634Z 21007KT 05/04 A303 RMK A01 T00540042  RH  092%=      5-min Rain = 0
KCL2 090635Z 20006KT 06/04 A303 RMK A01 T00550043  RH  092%=      5-min Rain = 0
KCL2 090636Z 21006KT 06/04 A303 RMK A01 T00560043  RH  092%=      5-min Rain = 0
KCL2 090637Z 20006KT 06/04 A303 RMK A01 T00560043  RH  091%=      5-min Rain = 0
KCL2 090638Z 20006KT 06/04 A303 RMK A01 T00570043  RH  091%=      5-min Rain = 0
KCL2 090639Z 21005KT 06/04 A303 RMK A01 T00570043  RH  091%=      5-min Rain = 0
KCL2 090640Z 21006KT 06/04 A303 RMK A01 T00580044  RH  091%=      5-min Rain = 0
KCL2 090641Z 21006KT 06/04 A303 RMK A01 T00590044  RH  090%=      5-min Rain = 0
KCL2 090642Z 20005KT 06/04 A303 RMK A01 T00590044  RH  090%=      5-min Rain = 0
KCL2 090643Z 21005KT 06/04 A303 RMK A01 T00600044  RH  090%=      5-min Rain = 0
KCL2 090644Z 21005KT 06/04 A303 RMK A01 T00600044  RH  090%=      5-min Rain = 0
KCL2 090645Z 21006KT 06/04 A303 RMK A01 T00600044  RH  089%=      5-min Rain = 0
KCL2 090646Z 20005KT 06/04 A303 RMK A01 T00600044  RH  089%=      5-min Rain = 0
KCL2 090647Z 21005KT 06/04 A303 RMK A01 T00600043  RH  089%=      5-min Rain = 0
KCL2 090648Z 20005KT 06/04 A303 RMK A01 T00600043  RH  089%=      5-min Rain = 0
KCL2 090649Z 20006KT 06/04 A303 RMK A01 T00600043  RH  089%=      5-min Rain = 0
KCL2 090650Z 20005KT 06/04 A303 RMK A01 T00600043  RH  089%=      5-min Rain = 0
KCL2 090651Z 21006KT 06/04 A303 RMK A01 T00600043  RH  089%=      5-min Rain = 0
KCL2 090652Z 20006KT 06/04 A303 RMK A01 T00600044  RH  089%=      5-min Rain = 0
KCL2 090653Z 21006KT 06/04 A303 RMK A01 T00600044  RH  089%=      5-min Rain = 0
KCL2 090654Z 21006KT 06/04 A303 RMK A01 T00610044  RH  089%=      5-min Rain = 0
KCL2 090655Z 20006KT 06/04 A303 RMK A01 T00610044  RH  089%=      5-min Rain = 0
KCL2 090656Z 20006KT 06/04 A303 RMK A01 T00610044  RH  089%=      5-min Rain = 0
KCL2 090657Z 20005KT 06/05 A303 RMK A01 T00620045  RH  089%=      5-min Rain = 0
KCL2 090658Z 21005KT 06/05 A303 RMK A01 T00620045  RH  089%=      5-min Rain = 0
KCL2 090659Z 21006KT 06/05 A303 RMK A01 T00640046  RH  089%=      5-min Rain = 0
KCL2 090700Z 21006KT 06/05 A303 RMK A01 T00640045  RH  088%=      5-min Rain = 0
KCL2 090701Z 21006KT 06/05 A303 RMK A01 T00630045  RH  088%=      5-min Rain = 0
KCL2 090702Z 21006KT 06/04 A303 RMK A01 T00630044  RH  088%=      5-min Rain = 0
KCL2 090703Z 21006KT 06/04 A303 RMK A01 T00620044  RH  088%=      5-min Rain = 0
KCL2 090704Z 21006KT 06/04 A303 RMK A01 T00620044  RH  088%=      5-min Rain = 0
KCL2 090705Z 21006KT 06/04 A303 RMK A01 T00610043  RH  089%=      5-min Rain = 0
KCL2 090706Z 21005KT 06/04 A303 RMK A01 T00600044  RH  089%=      5-min Rain = 0
KCL2 090707Z 21006KT 06/04 A303 RMK A01 T00600044  RH  089%=      5-min Rain = 0
KCL2 090708Z 21005KT 06/04 A303 RMK A01 T00600044  RH  090%=      5-min Rain = 0
KCL2 090709Z 21005KT 06/04 A303 RMK A01 T00600044  RH  090%=      5-min Rain = 0
KCL2 090710Z 21005KT 06/04 A303 RMK A01 T00590044  RH  090%=      5-min Rain = 0
KCL2 090711Z 22005KT 06/04 A303 RMK A01 T00590044  RH  090%=      5-min Rain = 0
KCL2 090712Z 21006KT 06/04 A303 RMK A01 T00590044  RH  090%=      5-min Rain = 0
KCL2 090713Z 21005KT 06/04 A303 RMK A01 T00590044  RH  090%=      5-min Rain = 0
KCL2 090714Z 21005KT 06/04 A303 RMK A01 T00580044  RH  090%=      5-min Rain = 0
KCL2 090715Z 21005KT 06/04 A303 RMK A01 T00580043  RH  090%=      5-min Rain = 0
KCL2 090716Z 21005KT 06/04 A303 RMK A01 T00580043  RH  090%=      5-min Rain = 0
KCL2 090717Z 21005KT 06/04 A303 RMK A01 T00580043  RH  090%=      5-min Rain = 0
KCL2 090718Z 21005KT 06/04 A303 RMK A01 T00580043  RH  090%=      5-min Rain = 0
KCL2 090719Z 21005KT 06/04 A303 RMK A01 T00580043  RH  090%=      5-min Rain = 0
KCL2 090720Z 21005KT 06/04 A303 RMK A01 T00580043  RH  090%=      5-min Rain = 0
KCL2 090721Z 21005KT 06/04 A303 RMK A01 T00580043  RH  090%=      5-min Rain = 0
KCL2 090722Z 21005KT 06/04 A3029 RMK A01 T00580043  RH  090%=      5-min Rain = 0
KCL2 090723Z 21005KT 06/04 A3029 RMK A01 T00580043  RH  090%=      5-min Rain = 0
KCL2 090724Z 21005KT 06/04 A3029 RMK A01 T00580043  RH  090%=      5-min Rain = 0
KCL2 090725Z 21006KT 06/04 A3029 RMK A01 T00580043  RH  090%=      5-min Rain = 0
KCL2 090726Z 21005KT 06/04 A3029 RMK A01 T00580043  RH  090%=      5-min Rain = 0
KCL2 090727Z 21005KT 06/04 A3029 RMK A01 T00580043  RH  090%=      5-min Rain = 0
KCL2 090728Z 21005KT 06/04 A3029 RMK A01 T00580044  RH  090%=      5-min Rain = 0
KCL2 090729Z 21005KT 06/04 A3029 RMK A01 T00580043  RH  090%=      5-min Rain = 0
KCL2 090730Z 21006KT 06/04 A3029 RMK A01 T00580043  RH  090%=      5-min Rain = 0
KCL2 090731Z 21005KT 06/04 A3029 RMK A01 T00580043  RH  090%=      5-min Rain = 0
KCL2 090732Z 21005KT 06/04 A3029 RMK A01 T00580044  RH  090%=      5-min Rain = 0
KCL2 090733Z 21005KT 06/04 A3029 RMK A01 T00580044  RH  090%=      5-min Rain = 0
KCL2 090734Z 21005KT 06/04 A3029 RMK A01 T00580044  RH  090%=      5-min Rain = 0
KCL2 090735Z 21006KT 06/04 A3029 RMK A01 T00580044  RH  090%=      5-min Rain = 0
KCL2 090736Z 21006KT 06/04 A3029 RMK A01 T00580044  RH  090%=      5-min Rain = 0
KCL2 090737Z 21006KT 06/04 A3029 RMK A01 T00580044  RH  090%=      5-min Rain = 0
KCL2 090738Z 21006KT 06/04 A3029 RMK A01 T00580043  RH  090%=      5-min Rain = 0
KCL2 090739Z 21006KT 06/04 A3029 RMK A01 T00580044  RH  090%=      5-min Rain = 0
KCL2 090740Z 21006KT 06/04 A3029 RMK A01 T00580044  RH  090%=      5-min Rain = 0
KCL2 090741Z 21006KT 06/04 A3029 RMK A01 T00580044  RH  091%=      5-min Rain = 0
KCL2 090742Z 21005KT 06/04 A3028 RMK A01 T00580044  RH  091%=      5-min Rain = 0
KCL2 090743Z 20005KT 06/04 A3028 RMK A01 T00580044  RH  091%=      5-min Rain = 0
KCL2 090744Z 21005KT 06/04 A3028 RMK A01 T00580044  RH  091%=      5-min Rain = 0
KCL2 090745Z 21005KT 06/04 A3028 RMK A01 T00580044  RH  091%=      5-min Rain = 0
KCL2 090746Z 21005KT 06/04 A3028 RMK A01 T00580044  RH  091%=      5-min Rain = 0
KCL2 090747Z 21005KT 06/04 A3028 RMK A01 T00580044  RH  091%=      5-min Rain = 0
KCL2 090748Z 21006KT 06/04 A3028 RMK A01 T00570043  RH  091%=      5-min Rain = 0
KCL2 090749Z 20006KT 06/04 A3028 RMK A01 T00580044  RH  091%=      5-min Rain = 0
KCL2 090750Z 20006KT 06/05 A3028 RMK A01 T00580045  RH  091%=      5-min Rain = 0
KCL2 090751Z 21007KT 06/05 A3028 RMK A01 T00600046  RH  091%=      5-min Rain = 0
KCL2 090752Z 21006KT 06/05 A3028 RMK A01 T00610046  RH  090%=      5-min Rain = 0
KCL2 090753Z 21006KT 06/05 A3028 RMK A01 T00600045  RH  090%=      5-min Rain = 0
KCL2 090754Z 21006KT 06/04 A3028 RMK A01 T00590044  RH  090%=      5-min Rain = 0
KCL2 090755Z 21006KT 06/04 A3028 RMK A01 T00590043  RH  090%=      5-min Rain = 0
KCL2 090756Z 20005KT 06/04 A3028 RMK A01 T00580043  RH  090%=      5-min Rain = 0
KCL2 090757Z 20006KT 06/04 A3028 RMK A01 T00580043  RH  091%=      5-min Rain = 0
KCL2 090758Z 20005KT 06/04 A3028 RMK A01 T00570043  RH  091%=      5-min Rain = 0
KCL2 090759Z 20005KT 06/04 A3028 RMK A01 T00570044  RH  091%=      5-min Rain = 0
KCL2 090800Z 20005KT 06/04 A3028 RMK A01 T00570043  RH  091%=      5-min Rain = 0
KCL2 090801Z 21005KT 06/04 A3028 RMK A01 T00570043  RH  091%=      5-min Rain = 0
KCL2 090802Z 20006KT 06/04 A3028 RMK A01 T00570043  RH  091%=      5-min Rain = 0
KCL2 090803Z 21006KT 06/04 A3028 RMK A01 T00570043  RH  091%=      5-min Rain = 0
KCL2 090804Z 20006KT 06/04 A3028 RMK A01 T00570043  RH  091%=      5-min Rain = 0
KCL2 090805Z 21006KT 06/04 A3028 RMK A01 T00560042  RH  091%=      5-min Rain = 0
KCL2 090806Z 21006KT 06/04 A3028 RMK A01 T00560042  RH  091%=      5-min Rain = 0
KCL2 090807Z 21006KT 06/04 A3028 RMK A01 T00560042  RH  091%=      5-min Rain = 0
KCL2 090808Z 21006KT 06/04 A3028 RMK A01 T00550042  RH  091%=      5-min Rain = 0
KCL2 090809Z 21006KT 06/04 A3028 RMK A01 T00550042  RH  091%=      5-min Rain = 0
KCL2 090810Z 21005KT 05/04 A3028 RMK A01 T00540042  RH  091%=      5-min Rain = 0
KCL2 090811Z 21005KT 06/04 A3028 RMK A01 T00550042  RH  092%=      5-min Rain = 0
KCL2 090812Z 21005KT 05/04 A3028 RMK A01 T00540042  RH  092%=      5-min Rain = 0
KCL2 090813Z 21005KT 05/04 A3028 RMK A01 T00540042  RH  092%=      5-min Rain = 0
KCL2 090814Z 21005KT 05/04 A3028 RMK A01 T00540041  RH  092%=      5-min Rain = 0
KCL2 090815Z 21004KT 05/04 A3028 RMK A01 T00530041  RH  092%=      5-min Rain = 0
KCL2 090816Z 21004KT 05/04 A3028 RMK A01 T00530041  RH  092%=      5-min Rain = 0
KCL2 090817Z 21004KT 05/04 A3028 RMK A01 T00530041  RH  092%=      5-min Rain = 0
KCL2 090818Z 21004KT 05/04 A3028 RMK A01 T00530041  RH  092%=      5-min Rain = 0
KCL2 090819Z 21004KT 05/04 A3028 RMK A01 T00530041  RH  092%=      5-min Rain = 0
KCL2 090820Z 21004KT 05/04 A3028 RMK A01 T00520041  RH  093%=      5-min Rain = 0
KCL2 090821Z 21004KT 05/04 A3028 RMK A01 T00530042  RH  093%=      5-min Rain = 0
KCL2 090822Z 21005KT 05/04 A3028 RMK A01 T00530042  RH  093%=      5-min Rain = 0
KCL2 090823Z 21005KT 05/04 A3028 RMK A01 T00530042  RH  093%=      5-min Rain = 0
KCL2 090824Z 21005KT 05/04 A3028 RMK A01 T00530041  RH  093%=      5-min Rain = 0
KCL2 090825Z 22005KT 05/04 A3028 RMK A01 T00520041  RH  093%=      5-min Rain = 0
KCL2 090826Z 22005KT 05/04 A3028 RMK A01 T00520041  RH  093%=      5-min Rain = 0
KCL2 090827Z 22005KT 05/04 A3028 RMK A01 T00520041  RH  093%=      5-min Rain = 0
KCL2 090828Z 22005KT 05/04 A3028 RMK A01 T00520041  RH  093%=      5-min Rain = 0
KCL2 090829Z 22005KT 05/04 A3027 RMK A01 T00520041  RH  093%=      5-min Rain = 0
KCL2 090830Z 22005KT 05/04 A3027 RMK A01 T00520041  RH  093%=      5-min Rain = 0
KCL2 090831Z 22005KT 05/04 A3027 RMK A01 T00520041  RH  093%=      5-min Rain = 0
KCL2 090832Z 22005KT 05/04 A3027 RMK A01 T00520041  RH  093%=      5-min Rain = 0
KCL2 090833Z 22005KT 05/04 A3027 RMK A01 T00520041  RH  093%=      5-min Rain = 0
KCL2 090834Z 22006KT 05/04 A3027 RMK A01 T00520041  RH  093%=      5-min Rain = 0
KCL2 090835Z 22005KT 05/04 A3027 RMK A01 T00520041  RH  093%=      5-min Rain = 0
KCL2 090836Z 22005KT 05/04 A3027 RMK A01 T00510040  RH  092%=      5-min Rain = 0
KCL2 090837Z 22005KT 05/04 A3027 RMK A01 T00510039  RH  092%=      5-min Rain = 0
KCL2 090838Z 22005KT 05/04 A3027 RMK A01 T00500039  RH  092%=      5-min Rain = 0
KCL2 090839Z 22005KT 05/04 A3027 RMK A01 T00500039  RH  093%=      5-min Rain = 0
KCL2 090840Z 22005KT 05/04 A3027 RMK A01 T00500039  RH  093%=      5-min Rain = 0
KCL2 090841Z 22005KT 05/04 A3027 RMK A01 T00490039  RH  093%=      5-min Rain = 0
KCL2 090842Z 22004KT 05/04 A3027 RMK A01 T00490039  RH  093%=      5-min Rain = 0
KCL2 090843Z 22004KT 05/04 A3027 RMK A01 T00490039  RH  093%=      5-min Rain = 0
KCL2 090844Z 22004KT 05/04 A3027 RMK A01 T00490039  RH  093%=      5-min Rain = 0
KCL2 090845Z 22004KT 05/04 A3027 RMK A01 T00490039  RH  093%=      5-min Rain = 0
KCL2 090846Z 23003KT 05/04 A3027 RMK A01 T00490039  RH  093%=      5-min Rain = 0
KCL2 090847Z 23003KT 05/04 A3027 RMK A01 T00490040  RH  094%=      5-min Rain = 0
KCL2 090848Z 23003KT 05/04 A3027 RMK A01 T00490040  RH  094%=      5-min Rain = 0
KCL2 090849Z 23003KT 05/04 A3027 RMK A01 T00500041  RH  094%=      5-min Rain = 0
KCL2 090850Z 23004KT 05/04 A3027 RMK A01 T00500041  RH  094%=      5-min Rain = 0
KCL2 090851Z 23004KT 05/04 A3027 RMK A01 T00500041  RH  094%=      5-min Rain = 0
KCL2 090852Z 23003KT 05/04 A3027 RMK A01 T00500042  RH  094%=      5-min Rain = 0
KCL2 090853Z 24003KT 05/04 A3027 RMK A01 T00510042  RH  094%=      5-min Rain = 0
KCL2 090854Z 24004KT 05/04 A3027 RMK A01 T00510042  RH  094%=      5-min Rain = 0
KCL2 090855Z 24004KT 05/04 A3027 RMK A01 T00510042  RH  094%=      5-min Rain = 0
KCL2 090856Z 24004KT 05/04 A3027 RMK A01 T00510042  RH  094%=      5-min Rain = 0
KCL2 090857Z 24004KT 05/04 A3027 RMK A01 T00520043  RH  094%=      5-min Rain = 0
KCL2 090858Z 24004KT 05/04 A3027 RMK A01 T00520043  RH  094%=      5-min Rain = 0
KCL2 090859Z 24005KT 05/04 A3027 RMK A01 T00530044  RH  094%=      5-min Rain = 0
KCL2 090900Z 23005KT 05/04 A3027 RMK A01 T00530043  RH  094%=      5-min Rain = 0
KCL2 090901Z 24005KT 05/04 A3027 RMK A01 T00530043  RH  093%=      5-min Rain = 0
KCL2 090902Z 24005KT 05/04 A3027 RMK A01 T00530043  RH  093%=      5-min Rain = 0
KCL2 090903Z 24004KT 05/04 A3027 RMK A01 T00530042  RH  093%=      5-min Rain = 0
KCL2 090904Z 24004KT 05/04 A3027 RMK A01 T00530042  RH  093%=      5-min Rain = 0
KCL2 090905Z 24004KT 05/04 A3027 RMK A01 T00530041  RH  093%=      5-min Rain = 0
KCL2 090906Z 24004KT 05/04 A3027 RMK A01 T00530041  RH  093%=      5-min Rain = 0
KCL2 090907Z 24004KT 05/04 A3027 RMK A01 T00520041  RH  093%=      5-min Rain = 0
KCL2 090908Z 24004KT 05/04 A3027 RMK A01 T00530041  RH  092%=      5-min Rain = 0
KCL2 090909Z 24004KT 05/04 A3027 RMK A01 T00520041  RH  092%=      5-min Rain = 0
KCL2 090910Z 24004KT 05/04 A3027 RMK A01 T00520040  RH  092%=      5-min Rain = 0
KCL2 090911Z 24004KT 05/04 A3027 RMK A01 T00520040  RH  092%=      5-min Rain = 0
KCL2 090912Z 25003KT 05/04 A3027 RMK A01 T00510040  RH  092%=      5-min Rain = 0
KCL2 090913Z 25003KT 05/04 A3027 RMK A01 T00500039  RH  092%=      5-min Rain = 0
KCL2 090914Z 25003KT 05/04 A3027 RMK A01 T00500039  RH  092%=      5-min Rain = 0
KCL2 090915Z 25003KT 05/04 A3027 RMK A01 T00500038  RH  092%=      5-min Rain = 0
KCL2 090916Z 25003KT 05/04 A3027 RMK A01 T00500038  RH  092%=      5-min Rain = 0
KCL2 090917Z 26003KT 05/04 A3027 RMK A01 T00500039  RH  093%=      5-min Rain = 0
KCL2 090918Z 26003KT 05/04 A3027 RMK A01 T00500039  RH  093%=      5-min Rain = 0
KCL2 090919Z 26003KT 05/04 A3027 RMK A01 T00500039  RH  093%=      5-min Rain = 0
KCL2 090920Z 27003KT 05/04 A3027 RMK A01 T00500039  RH  093%=      5-min Rain = 0
KCL2 090921Z 27003KT 05/04 A3027 RMK A01 T00500039  RH  093%=      5-min Rain = 0
KCL2 090922Z 27003KT 05/04 A3027 RMK A01 T00500040  RH  093%=      5-min Rain = 0
KCL2 090923Z 27003KT 05/04 A3027 RMK A01 T00500040  RH  093%=      5-min Rain = 0
KCL2 090924Z 26003KT 05/04 A3027 RMK A01 T00500040  RH  093%=      5-min Rain = 0
KCL2 090925Z 26003KT 05/04 A3027 RMK A01 T00500040  RH  093%=      5-min Rain = 0
KCL2 090926Z 27003KT 05/04 A3027 RMK A01 T00500040  RH  094%=      5-min Rain = 0
KCL2 090927Z 26003KT 05/04 A3027 RMK A01 T00500040  RH  094%=      5-min Rain = 0
KCL2 090928Z 27003KT 05/04 A3027 RMK A01 T00500040  RH  094%=      5-min Rain = 0
KCL2 090929Z 27003KT 05/04 A3027 RMK A01 T00500041  RH  094%=      5-min Rain = 0
KCL2 090930Z 27004KT 05/04 A3027 RMK A01 T00500041  RH  094%=      5-min Rain = 0
KCL2 090931Z 27004KT 05/04 A3027 RMK A01 T00500041  RH  094%=      5-min Rain = 0
KCL2 090932Z 27003KT 05/04 A3027 RMK A01 T00510041  RH  094%=      5-min Rain = 0
KCL2 090933Z 27004KT 05/04 A3027 RMK A01 T00510041  RH  094%=      5-min Rain = 0
KCL2 090934Z 27004KT 05/04 A3027 RMK A01 T00510041  RH  093%=      5-min Rain = 0
KCL2 090935Z 27004KT 05/04 A3027 RMK A01 T00510041  RH  093%=      5-min Rain = 0
KCL2 090936Z 27003KT 05/04 A3027 RMK A01 T00510040  RH  093%=      5-min Rain = 0
KCL2 090937Z 27003KT 05/04 A3027 RMK A01 T00510040  RH  093%=      5-min Rain = 0
KCL2 090938Z 27003KT 05/04 A3027 RMK A01 T00510041  RH  093%=      5-min Rain = 0
KCL2 090939Z 27003KT 05/04 A3027 RMK A01 T00510041  RH  093%=      5-min Rain = 0
KCL2 090940Z 27003KT 05/04 A3027 RMK A01 T00510041  RH  093%=      5-min Rain = 0
KCL2 090941Z 27003KT 05/04 A3027 RMK A01 T00510041  RH  093%=      5-min Rain = 0
KCL2 090942Z 27003KT 05/04 A3027 RMK A01 T00500040  RH  093%=      5-min Rain = 0
KCL2 090943Z 27003KT 05/04 A3027 RMK A01 T00500040  RH  093%=      5-min Rain = 0
KCL2 090944Z 26003KT 05/04 A3027 RMK A01 T00500040  RH  093%=      5-min Rain = 0
KCL2 090945Z 26004KT 05/04 A3027 RMK A01 T00500040  RH  094%=      5-min Rain = 0
KCL2 090946Z 26003KT 05/04 A3027 RMK A01 T00500041  RH  094%=      5-min Rain = 0
KCL2 090947Z 26004KT 05/04 A3027 RMK A01 T00500041  RH  094%=      5-min Rain = 0
KCL2 090948Z 25004KT 05/04 A3026 RMK A01 T00500041  RH  094%=      5-min Rain = 0
KCL2 090949Z 25004KT 05/04 A3026 RMK A01 T00490040  RH  094%=      5-min Rain = 0
KCL2 090950Z 25004KT 05/04 A3026 RMK A01 T00490041  RH  094%=      5-min Rain = 0
KCL2 090951Z 25004KT 05/04 A3026 RMK A01 T00490040  RH  094%=      5-min Rain = 0
KCL2 090952Z 25004KT 05/04 A3026 RMK A01 T00500041  RH  094%=      5-min Rain = 0
KCL2 090953Z 25004KT 05/04 A3026 RMK A01 T00490041  RH  094%=      5-min Rain = 0
KCL2 090954Z 26004KT 05/04 A3026 RMK A01 T00490040  RH  094%=      5-min Rain = 0
KCL2 090955Z 26004KT 05/04 A3026 RMK A01 T00490041  RH  094%=      5-min Rain = 0
KCL2 090956Z 25004KT 05/04 A3026 RMK A01 T00490041  RH  095%=      5-min Rain = 0
KCL2 090957Z 25004KT 05/04 A3026 RMK A01 T00490042  RH  095%=      5-min Rain = 0
KCL2 090958Z 25004KT 05/04 A3026 RMK A01 T00500042  RH  095%=      5-min Rain = 0
KCL2 090959Z 25004KT 05/04 A3026 RMK A01 T00500042  RH  095%=      5-min Rain = 0
KCL2 091000Z 25004KT 05/04 A3026 RMK A01 T00500042  RH  095%=      5-min Rain = 0
KCL2 091001Z 25004KT 05/04 A3026 RMK A01 T00500042  RH  095%=      5-min Rain = 0
KCL2 091002Z 25004KT 05/04 A3026 RMK A01 T00510043  RH  095%=      5-min Rain = 0
KCL2 091003Z 25004KT 05/04 A3026 RMK A01 T00510043  RH  095%=      5-min Rain = 0
KCL2 091004Z 25004KT 05/04 A3026 RMK A01 T00510043  RH  095%=      5-min Rain = 0
KCL2 091005Z 25004KT 05/04 A3026 RMK A01 T00510043  RH  094%=      5-min Rain = 0
KCL2 091006Z 25004KT 05/04 A3026 RMK A01 T00500042  RH  094%=      5-min Rain = 0
KCL2 091007Z 25004KT 05/04 A3026 RMK A01 T00500041  RH  094%=      5-min Rain = 0
KCL2 091008Z 25004KT 05/04 A3026 RMK A01 T00500041  RH  094%=      5-min Rain = 0
KCL2 091009Z 24004KT 05/04 A3026 RMK A01 T00500041  RH  094%=      5-min Rain = 0
KCL2 091010Z 24004KT 05/04 A3026 RMK A01 T00490041  RH  094%=      5-min Rain = 0
KCL2 091011Z 24004KT 05/04 A3026 RMK A01 T00490041  RH  094%=      5-min Rain = 0
KCL2 091012Z 25004KT 05/04 A3026 RMK A01 T00490041  RH  094%=      5-min Rain = 0
KCL2 091013Z 25004KT 05/04 A3026 RMK A01 T00490041  RH  094%=      5-min Rain = 0
KCL2 091014Z 25004KT 05/04 A3026 RMK A01 T00490040  RH  094%=      5-min Rain = 0
KCL2 091015Z 25005KT 05/04 A3026 RMK A01 T00490040  RH  094%=      5-min Rain = 0
KCL2 091016Z 25005KT 05/04 A3026 RMK A01 T00490040  RH  094%=      5-min Rain = 0
KCL2 091017Z 25005KT 05/04 A3026 RMK A01 T00490040  RH  094%=      5-min Rain = 0
KCL2 091018Z 24005KT 05/04 A3026 RMK A01 T00490040  RH  094%=      5-min Rain = 0
KCL2 091019Z 24005KT 05/04 A3026 RMK A01 T00490040  RH  094%=      5-min Rain = 0
KCL2 091020Z 24005KT 05/04 A3026 RMK A01 T00490040  RH  094%=      5-min Rain = 0
KCL2 091021Z 24005KT 05/04 A3026 RMK A01 T00480039  RH  094%=      5-min Rain = 0
KCL2 091022Z 24005KT 05/04 A3026 RMK A01 T00460036  RH  093%=      5-min Rain = 0
KCL2 091023Z 24005KT 05/04 A3026 RMK A01 T00450035  RH  093%=      5-min Rain = 0
KCL2 091024Z 24005KT 05/04 A3026 RMK A01 T00450035  RH  093%=      5-min Rain = 0
KCL2 091025Z 24005KT 05/04 A3026 RMK A01 T00450035  RH  094%=      5-min Rain = 0
KCL2 091026Z 24005KT 04/04 A3026 RMK A01 T00440035  RH  094%=      5-min Rain = 0
KCL2 091027Z 24004KT 04/04 A3026 RMK A01 T00440035  RH  094%=      5-min Rain = 0
KCL2 091028Z 24005KT 04/04 A3026 RMK A01 T00440035  RH  094%=      5-min Rain = 0
KCL2 091029Z 24005KT 04/04 A3026 RMK A01 T00430035  RH  094%=      5-min Rain = 0
KCL2 091030Z 24004KT 04/03 A3026 RMK A01 T00430034  RH  094%=      5-min Rain = 0
KCL2 091031Z 24004KT 04/03 A3026 RMK A01 T00420033  RH  094%=      5-min Rain = 0
KCL2 091032Z 24004KT 04/03 A3026 RMK A01 T00420032  RH  094%=      5-min Rain = 0
KCL2 091033Z 24004KT 04/03 A3026 RMK A01 T00410032  RH  094%=      5-min Rain = 0
KCL2 091034Z 25004KT 04/03 A3026 RMK A01 T00410033  RH  094%=      5-min Rain = 0
KCL2 091035Z 25004KT 04/03 A3026 RMK A01 T00420034  RH  095%=      5-min Rain = 0
KCL2 091036Z 24004KT 04/04 A3026 RMK A01 T00420035  RH  095%=      5-min Rain = 0
KCL2 091037Z 25004KT 04/04 A3026 RMK A01 T00430036  RH  095%=      5-min Rain = 0
KCL2 091038Z 25004KT 04/04 A3026 RMK A01 T00440037  RH  095%=      5-min Rain = 0
KCL2 091039Z 25004KT 04/04 A3026 RMK A01 T00440037  RH  095%=      5-min Rain = 0
KCL2 091040Z 25004KT 04/04 A3026 RMK A01 T00440037  RH  095%=      5-min Rain = 0
KCL2 091041Z 25004KT 04/04 A3026 RMK A01 T00440037  RH  095%=      5-min Rain = 0
KCL2 091042Z 25004KT 04/04 A3026 RMK A01 T00440037  RH  095%=      5-min Rain = 0
KCL2 091043Z 24005KT 04/04 A3026 RMK A01 T00440037  RH  095%=      5-min Rain = 0
KCL2 091044Z 24005KT 04/04 A3026 RMK A01 T00440037  RH  095%=      5-min Rain = 0
KCL2 091045Z 24005KT 04/04 A3026 RMK A01 T00440037  RH  095%=      5-min Rain = 0
KCL2 091046Z 24005KT 04/04 A3026 RMK A01 T00440037  RH  095%=      5-min Rain = 0
KCL2 091047Z 24005KT 04/04 A3026 RMK A01 T00440037  RH  095%=      5-min Rain = 0
KCL2 091048Z 24005KT 04/04 A3026 RMK A01 T00440037  RH  095%=      5-min Rain = 0
KCL2 091049Z 24005KT 04/04 A3026 RMK A01 T00440037  RH  095%=      5-min Rain = 0
KCL2 091050Z 23005KT 04/04 A3026 RMK A01 T00440037  RH  095%=      5-min Rain = 0
KCL2 091051Z 23005KT 04/04 A3026 RMK A01 T00440036  RH  095%=      5-min Rain = 0
KCL2 091052Z 23005KT 04/04 A3026 RMK A01 T00440037  RH  095%=      5-min Rain = 0
KCL2 091053Z 24005KT 04/04 A3026 RMK A01 T00440037  RH  095%=      5-min Rain = 0
KCL2 091054Z 24006KT 04/04 A3026 RMK A01 T00440037  RH  095%=      5-min Rain = 0
KCL2 091055Z 24005KT 04/04 A3026 RMK A01 T00440037  RH  095%=      5-min Rain = 0
KCL2 091056Z 24006KT 05/04 A3025 RMK A01 T00450037  RH  095%=      5-min Rain = 0
KCL2 091057Z 24006KT 05/04 A3025 RMK A01 T00450036  RH  095%=      5-min Rain = 0
KCL2 091058Z 24006KT 04/04 A3025 RMK A01 T00440036  RH  094%=      5-min Rain = 0
KCL2 091059Z 24006KT 04/04 A3025 RMK A01 T00440036  RH  095%=      5-min Rain = 0
KCL2 091100Z 24006KT 04/04 A3025 RMK A01 T00440036  RH  095%=      5-min Rain = 0
KCL2 091101Z 24005KT 05/04 A3025 RMK A01 T00450037  RH  094%=      5-min Rain = 0
KCL2 091102Z 24006KT 05/04 A3025 RMK A01 T00450037  RH  094%=      5-min Rain = 0
KCL2 091103Z 24005KT 05/04 A3025 RMK A01 T00450037  RH  094%=      5-min Rain = 0
KCL2 091104Z 24005KT 05/04 A3025 RMK A01 T00460038  RH  095%=      5-min Rain = 0
KCL2 091105Z 24005KT 05/04 A3025 RMK A01 T00460038  RH  094%=      5-min Rain = 0
KCL2 091106Z 24005KT 05/04 A3026 RMK A01 T00470039  RH  095%=      5-min Rain = 0
KCL2 091107Z 24005KT 05/04 A3026 RMK A01 T00480040  RH  094%=      5-min Rain = 0
KCL2 091108Z 24005KT 05/04 A3026 RMK A01 T00480040  RH  094%=      5-min Rain = 0
KCL2 091109Z 24005KT 05/04 A3026 RMK A01 T00490041  RH  094%=      5-min Rain = 0
KCL2 091110Z 24005KT 05/04 A3026 RMK A01 T00490041  RH  094%=      5-min Rain = 0
KCL2 091111Z 24005KT 05/04 A3026 RMK A01 T00500041  RH  094%=      5-min Rain = 0
KCL2 091112Z 23005KT 05/04 A3026 RMK A01 T00500041  RH  094%=      5-min Rain = 0
KCL2 091113Z 23005KT 05/04 A3026 RMK A01 T00500041  RH  094%=      5-min Rain = 0
KCL2 091114Z 23005KT 05/04 A3026 RMK A01 T00500040  RH  093%=      5-min Rain = 0
KCL2 091115Z 23005KT 05/04 A3025 RMK A01 T00500040  RH  093%=      5-min Rain = 0
KCL2 091116Z 23005KT 05/04 A3025 RMK A01 T00500039  RH  093%=      5-min Rain = 0
KCL2 091117Z 23005KT 05/04 A3025 RMK A01 T00490039  RH  093%=      5-min Rain = 0
KCL2 091118Z 23005KT 05/04 A3025 RMK A01 T00490039  RH  093%=      5-min Rain = 0
KCL2 091119Z 23005KT 05/04 A3025 RMK A01 T00490039  RH  093%=      5-min Rain = 0
KCL2 091120Z 23006KT 05/04 A3025 RMK A01 T00490039  RH  093%=      5-min Rain = 0
KCL2 091121Z 23005KT 05/04 A3025 RMK A01 T00500040  RH  093%=      5-min Rain = 0
KCL2 091122Z 22006KT 05/04 A3025 RMK A01 T00500040  RH  093%=      5-min Rain = 0
KCL2 091123Z 22006KT 05/04 A3025 RMK A01 T00500040  RH  093%=      5-min Rain = 0
KCL2 091124Z 22005KT 05/04 A3025 RMK A01 T00500040  RH  093%=      5-min Rain = 0
KCL2 091125Z 22005KT 05/04 A3025 RMK A01 T00500040  RH  093%=      5-min Rain = 0
KCL2 091126Z 22005KT 05/04 A3025 RMK A01 T00500040  RH  093%=      5-min Rain = 0
KCL2 091127Z 22005KT 05/04 A3025 RMK A01 T00500040  RH  093%=      5-min Rain = 0
KCL2 091128Z 22005KT 05/04 A3025 RMK A01 T00500040  RH  093%=      5-min Rain = 0
KCL2 091129Z 22005KT 05/04 A3025 RMK A01 T00500040  RH  093%=      5-min Rain = 0
KCL2 091130Z 22005KT 05/04 A3025 RMK A01 T00500040  RH  093%=      5-min Rain = 0
KCL2 091131Z 22005KT 05/04 A3025 RMK A01 T00500040  RH  093%=      5-min Rain = 0
KCL2 091132Z 22005KT 05/04 A3025 RMK A01 T00500040  RH  093%=      5-min Rain = 0
KCL2 091133Z 22006KT 05/04 A3025 RMK A01 T00500041  RH  094%=      5-min Rain = 0
KCL2 091134Z 22006KT 05/04 A3025 RMK A01 T00510041  RH  094%=      5-min Rain = 0
KCL2 091135Z 22005KT 05/04 A3025 RMK A01 T00510041  RH  093%=      5-min Rain = 0
KCL2 091136Z 22006KT 05/04 A3025 RMK A01 T00510041  RH  093%=      5-min Rain = 0
KCL2 091137Z 22005KT 05/04 A3025 RMK A01 T00520043  RH  094%=      5-min Rain = 0
KCL2 091138Z 22006KT 05/04 A3025 RMK A01 T00540044  RH  094%=      5-min Rain = 0
KCL2 091139Z 22006KT 05/04 A3025 RMK A01 T00530043  RH  093%=      5-min Rain = 0
KCL2 091140Z 22006KT 05/04 A3025 RMK A01 T00530043  RH  093%=      5-min Rain = 0
KCL2 091141Z 22006KT 05/04 A3025 RMK A01 T00520041  RH  093%=      5-min Rain = 0
KCL2 091142Z 22006KT 05/04 A3025 RMK A01 T00520041  RH  093%=      5-min Rain = 0
KCL2 091143Z 22006KT 05/04 A3025 RMK A01 T00520041  RH  093%=      5-min Rain = 0
KCL2 091144Z 22006KT 05/04 A3025 RMK A01 T00510040  RH  093%=      5-min Rain = 0
KCL2 091145Z 22006KT 05/04 A3025 RMK A01 T00510040  RH  093%=      5-min Rain = 0
KCL2 091146Z 22006KT 05/04 A3025 RMK A01 T00510040  RH  093%=      5-min Rain = 0
KCL2 091147Z 22007KT 05/04 A3025 RMK A01 T00510040  RH  093%=      5-min Rain = 0
KCL2 091148Z 22006KT 05/04 A3025 RMK A01 T00510041  RH  093%=      5-min Rain = 0
KCL2 091149Z 22006KT 05/04 A3025 RMK A01 T00510041  RH  093%=      5-min Rain = 0
KCL2 091150Z 22006KT 05/04 A3025 RMK A01 T00510041  RH  093%=      5-min Rain = 0
KCL2 091151Z 22006KT 05/04 A3025 RMK A01 T00520042  RH  094%=      5-min Rain = 0
KCL2 091152Z 22007KT 05/04 A3025 RMK A01 T00520043  RH  094%=      5-min Rain = 0
KCL2 091153Z 22006KT 05/04 A3025 RMK A01 T00530043  RH  093%=      5-min Rain = 0
KCL2 091154Z 23007KT 05/04 A3025 RMK A01 T00530043  RH  093%=      5-min Rain = 0
KCL2 091155Z 22006KT 05/04 A3025 RMK A01 T00530044  RH  093%=      5-min Rain = 0
KCL2 091156Z 22006KT 05/04 A3025 RMK A01 T00540044  RH  094%=      5-min Rain = 0
KCL2 091157Z 22007KT 05/05 A3025 RMK A01 T00540045  RH  093%=      5-min Rain = 0
KCL2 091158Z 22007KT 05/04 A3025 RMK A01 T00540044  RH  093%=      5-min Rain = 0
KCL2 091159Z 22006KT 06/05 A3025 RMK A01 T00550045  RH  093%=      5-min Rain = 0
KCL2 091200Z 22006KT 06/05 A3026 RMK A01 T00550045  RH  093%=      5-min Rain = 0
KCL2 091201Z 22006KT 06/05 A3026 RMK A01 T00550045  RH  093%=      5-min Rain = 0
KCL2 091202Z 22006KT 06/05 A3026 RMK A01 T00560045  RH  093%=      5-min Rain = 0
KCL2 091203Z 22006KT 06/05 A3026 RMK A01 T00560045  RH  093%=      5-min Rain = 0
KCL2 091204Z 22006KT 06/05 A3026 RMK A01 T00560046  RH  093%=      5-min Rain = 0
KCL2 091205Z 22006KT 06/05 A3026 RMK A01 T00560045  RH  093%=      5-min Rain = 0
KCL2 091206Z 22006KT 06/05 A3026 RMK A01 T00560045  RH  093%=      5-min Rain = 0
KCL2 091207Z 22006KT 06/04 A3026 RMK A01 T00550044  RH  093%=      5-min Rain = 0
KCL2 091208Z 22006KT 06/04 A3026 RMK A01 T00550044  RH  093%=      5-min Rain = 0
KCL2 091209Z 23006KT 06/04 A3026 RMK A01 T00550044  RH  093%=      5-min Rain = 0
KCL2 091210Z 23006KT 06/05 A3026 RMK A01 T00550045  RH  093%=      5-min Rain = 0
KCL2 091211Z 23006KT 06/05 A3026 RMK A01 T00550045  RH  093%=      5-min Rain = 0
KCL2 091212Z 23006KT 06/05 A3026 RMK A01 T00560045  RH  093%=      5-min Rain = 0
KCL2 091213Z 23007KT 06/05 A3026 RMK A01 T00550045  RH  093%=      5-min Rain = 0
KCL2 091214Z 23006KT 06/05 A3026 RMK A01 T00550045  RH  093%=      5-min Rain = 0
KCL2 091215Z 23006KT 06/05 A3026 RMK A01 T00560045  RH  093%=      5-min Rain = 0
KCL2 091216Z 23006KT 06/05 A3026 RMK A01 T00560046  RH  093%=      5-min Rain = 0
KCL2 091217Z 23006KT 06/05 A3026 RMK A01 T00560046  RH  093%=      5-min Rain = 0
KCL2 091218Z 23007KT 06/05 A3026 RMK A01 T00560046  RH  093%=      5-min Rain = 0
KCL2 091219Z 23006KT 06/05 A3026 RMK A01 T00560045  RH  093%=      5-min Rain = 0
KCL2 091220Z 23007KT 06/05 A3026 RMK A01 T00550045  RH  093%=      5-min Rain = 0
KCL2 091221Z 23007KT 06/04 A3026 RMK A01 T00550044  RH  093%=      5-min Rain = 0
KCL2 091222Z 23007KT 06/04 A3026 RMK A01 T00550044  RH  093%=      5-min Rain = 0
KCL2 091223Z 23007KT 05/04 A3026 RMK A01 T00540044  RH  093%=      5-min Rain = 0
KCL2 091224Z 23007KT 06/04 A3026 RMK A01 T00550044  RH  093%=      5-min Rain = 0
KCL2 091225Z 23007KT 05/05 A3026 RMK A01 T00540045  RH  093%=      5-min Rain = 0
KCL2 091226Z 23007KT 05/04 A3026 RMK A01 T00540044  RH  093%=      5-min Rain = 0
KCL2 091227Z 22007KT 05/05 A3026 RMK A01 T00540045  RH  093%=      5-min Rain = 0
KCL2 091228Z 22006KT 06/05 A3026 RMK A01 T00550045  RH  094%=      5-min Rain = 0
KCL2 091229Z 22006KT 05/05 A3026 RMK A01 T00540045  RH  093%=      5-min Rain = 0
KCL2 091230Z 22007KT 05/05 A3026 RMK A01 T00540045  RH  093%=      5-min Rain = 0
KCL2 091231Z 22007KT 05/05 A3026 RMK A01 T00540045  RH  094%=      5-min Rain = 0
KCL2 091232Z 22007KT 06/05 A3026 RMK A01 T00550046  RH  094%=      5-min Rain = 0
KCL2 091233Z 22007KT 06/05 A3026 RMK A01 T00560046  RH  094%=      5-min Rain = 0
KCL2 091234Z 22007KT 06/05 A3026 RMK A01 T00560046  RH  093%=      5-min Rain = 0
KCL2 091235Z 22007KT 06/05 A3026 RMK A01 T00560047  RH  093%=      5-min Rain = 0
KCL2 091236Z 21006KT 06/05 A3026 RMK A01 T00570046  RH  093%=      5-min Rain = 0
KCL2 091237Z 21006KT 06/05 A3026 RMK A01 T00570046  RH  093%=      5-min Rain = 0
KCL2 091238Z 21006KT 06/05 A3026 RMK A01 T00560046  RH  093%=      5-min Rain = 0
KCL2 091239Z 21006KT 06/05 A3026 RMK A01 T00560045  RH  093%=      5-min Rain = 0
KCL2 091240Z 21006KT 06/05 A3026 RMK A01 T00560045  RH  093%=      5-min Rain = 0
KCL2 091241Z 22006KT 06/05 A3026 RMK A01 T00560045  RH  093%=      5-min Rain = 0
KCL2 091242Z 21006KT 06/05 A3026 RMK A01 T00560046  RH  093%=      5-min Rain = 0
KCL2 091243Z 22006KT 06/05 A3026 RMK A01 T00560046  RH  093%=      5-min Rain = 0
KCL2 091244Z 22006KT 06/05 A3026 RMK A01 T00560046  RH  093%=      5-min Rain = 0
KCL2 091245Z 21006KT 06/05 A3026 RMK A01 T00560046  RH  093%=      5-min Rain = 0
KCL2 091246Z 21006KT 06/05 A3026 RMK A01 T00560046  RH  093%=      5-min Rain = 0
KCL2 091247Z 22006KT 06/05 A3026 RMK A01 T00560046  RH  093%=      5-min Rain = 0
KCL2 091248Z 21006KT 06/05 A3026 RMK A01 T00560046  RH  093%=      5-min Rain = 0
KCL2 091249Z 22006KT 06/05 A3026 RMK A01 T00560046  RH  093%=      5-min Rain = 0
KCL2 091250Z 22006KT 06/05 A3026 RMK A01 T00560046  RH  093%=      5-min Rain = 0
KCL2 091251Z 22006KT 06/05 A3026 RMK A01 T00560046  RH  093%=      5-min Rain = 0
KCL2 091252Z 22007KT 06/05 A3026 RMK A01 T00570047  RH  093%=      5-min Rain = 0
KCL2 091253Z 22007KT 06/05 A3026 RMK A01 T00570047  RH  093%=      5-min Rain = 0
KCL2 091254Z 22007KT 06/05 A3026 RMK A01 T00580048  RH  093%=      5-min Rain = 0
KCL2 091255Z 22007KT 06/05 A3026 RMK A01 T00590049  RH  093%=      5-min Rain = 0
KCL2 091256Z 22007KT 06/05 A3026 RMK A01 T00590048  RH  093%=      5-min Rain = 0
KCL2 091257Z 22007KT 06/05 A3026 RMK A01 T00590049  RH  093%=      5-min Rain = 0
KCL2 091258Z 22006KT 06/05 A3026 RMK A01 T00600049  RH  093%=      5-min Rain = 0
KCL2 091259Z 22006KT 06/05 A3026 RMK A01 T00590049  RH  093%=      5-min Rain = 0
KCL2 091300Z 22006KT 06/05 A3026 RMK A01 T00590049  RH  093%=      5-min Rain = 0
KCL2 091301Z 22006KT 06/05 A3026 RMK A01 T00590049  RH  093%=      5-min Rain = 0
KCL2 091302Z 22006KT 06/05 A3026 RMK A01 T00600049  RH  093%=      5-min Rain = 0
KCL2 091303Z 22006KT 06/05 A3026 RMK A01 T00590049  RH  093%=      5-min Rain = 0
KCL2 091304Z 22006KT 06/05 A3026 RMK A01 T00590049  RH  093%=      5-min Rain = 0
KCL2 091305Z 22006KT 06/05 A3026 RMK A01 T00590048  RH  093%=      5-min Rain = 0
KCL2 091306Z 22006KT 06/05 A3026 RMK A01 T00590048  RH  093%=      5-min Rain = 0
KCL2 091307Z 22006KT 06/05 A3026 RMK A01 T00590049  RH  093%=      5-min Rain = 0
KCL2 091308Z 22006KT 06/05 A3026 RMK A01 T00580048  RH  093%=      5-min Rain = 0
KCL2 091309Z 21006KT 06/05 A3026 RMK A01 T00580048  RH  093%=      5-min Rain = 0
KCL2 091310Z 21006KT 06/05 A3026 RMK A01 T00580048  RH  093%=      5-min Rain = 0
KCL2 091311Z 21005KT 06/05 A3026 RMK A01 T00580048  RH  093%=      5-min Rain = 0
KCL2 091312Z 21005KT 06/05 A3026 RMK A01 T00580048  RH  094%=      5-min Rain = 0
KCL2 091313Z 21005KT 06/05 A3026 RMK A01 T00570048  RH  094%=      5-min Rain = 0
KCL2 091314Z 21005KT 06/05 A3026 RMK A01 T00570048  RH  094%=      5-min Rain = 0
KCL2 091315Z 22005KT 06/05 A3026 RMK A01 T00570048  RH  094%=      5-min Rain = 0
KCL2 091316Z 21004KT 06/05 A3026 RMK A01 T00570048  RH  094%=      5-min Rain = 0
KCL2 091317Z 22004KT 06/05 A3026 RMK A01 T00570048  RH  094%=      5-min Rain = 0
KCL2 091318Z 22005KT 06/05 A3026 RMK A01 T00570048  RH  094%=      5-min Rain = 0
KCL2 091319Z 22004KT 06/05 A3026 RMK A01 T00570048  RH  094%=      5-min Rain = 0
KCL2 091320Z 22004KT 06/05 A3026 RMK A01 T00570048  RH  094%=      5-min Rain = 0
KCL2 091321Z 22005KT 06/05 A3026 RMK A01 T00570048  RH  094%=      5-min Rain = 0
KCL2 091322Z 22004KT 06/05 A3026 RMK A01 T00580049  RH  094%=      5-min Rain = 0
KCL2 091323Z 22004KT 06/05 A3026 RMK A01 T00590050  RH  094%=      5-min Rain = 0
KCL2 091324Z 22004KT 06/05 A3026 RMK A01 T00590050  RH  094%=      5-min Rain = 0
KCL2 091325Z 23003KT 06/05 A3026 RMK A01 T00600050  RH  094%=      5-min Rain = 0
KCL2 091326Z 22004KT 06/05 A3026 RMK A01 T00600051  RH  094%=      5-min Rain = 0
KCL2 091327Z 23003KT 06/05 A3026 RMK A01 T00610051  RH  094%=      5-min Rain = 0
KCL2 091328Z 23003KT 06/05 A3026 RMK A01 T00620052  RH  094%=      5-min Rain = 0
KCL2 091329Z 23003KT 06/05 A3026 RMK A01 T00620052  RH  093%=      5-min Rain = 0
KCL2 091330Z 23004KT 06/05 A3026 RMK A01 T00620052  RH  093%=      5-min Rain = 0
KCL2 091331Z 23004KT 06/05 A3026 RMK A01 T00630053  RH  093%=      5-min Rain = 0
KCL2 091332Z 23004KT 06/05 A3026 RMK A01 T00630053  RH  093%=      5-min Rain = 0
KCL2 091333Z 23004KT 06/05 A3026 RMK A01 T00640053  RH  093%=      5-min Rain = 0
KCL2 091334Z 23004KT 06/05 A3026 RMK A01 T00640053  RH  093%=      5-min Rain = 0
KCL2 091335Z 23004KT 06/05 A3026 RMK A01 T00640054  RH  093%=      5-min Rain = 0
KCL2 091336Z 23004KT 07/05 A3026 RMK A01 T00650054  RH  093%=      5-min Rain = 0
KCL2 091337Z 22004KT 07/05 A3026 RMK A01 T00650054  RH  093%=      5-min Rain = 0
KCL2 091338Z 22004KT 07/06 A3026 RMK A01 T00660055  RH  093%=      5-min Rain = 0
KCL2 091339Z 22004KT 07/06 A3026 RMK A01 T00660055  RH  093%=      5-min Rain = 0
KCL2 091340Z 22004KT 07/06 A3026 RMK A01 T00670056  RH  093%=      5-min Rain = 0
KCL2 091341Z 22005KT 07/06 A3026 RMK A01 T00680057  RH  093%=      5-min Rain = 0
KCL2 091342Z 22005KT 07/06 A3026 RMK A01 T00690057  RH  093%=      5-min Rain = 0
KCL2 091343Z 22005KT 07/06 A3026 RMK A01 T00700058  RH  092%=      5-min Rain = 0
KCL2 091344Z 22005KT 07/06 A3026 RMK A01 T00700059  RH  092%=      5-min Rain = 0
KCL2 091345Z 22005KT 07/06 A3026 RMK A01 T00710059  RH  092%=      5-min Rain = 0
KCL2 091346Z 22004KT 07/06 A3026 RMK A01 T00720060  RH  092%=      5-min Rain = 0
KCL2 091347Z 23004KT 07/06 A3026 RMK A01 T00730060  RH  092%=      5-min Rain = 0
KCL2 091348Z 23003KT 07/06 A3026 RMK A01 T00740061  RH  092%=      5-min Rain = 0
KCL2 091349Z 23003KT 08/06 A3027 RMK A01 T00750062  RH  092%=      5-min Rain = 0
KCL2 091350Z 23003KT 08/06 A3027 RMK A01 T00760063  RH  091%=      5-min Rain = 0
KCL2 091351Z 23004KT 08/06 A3027 RMK A01 T00760063  RH  091%=      5-min Rain = 0
KCL2 091352Z 23004KT 08/06 A3026 RMK A01 T00770063  RH  091%=      5-min Rain = 0
KCL2 091353Z 23003KT 08/06 A3026 RMK A01 T00780064  RH  091%=      5-min Rain = 0
KCL2 091354Z 22003KT 08/07 A3026 RMK A01 T00790065  RH  090%=      5-min Rain = 0
KCL2 091355Z 23004KT 08/07 A3026 RMK A01 T00800065  RH  090%=      5-min Rain = 0
KCL2 091356Z 23004KT 08/07 A3026 RMK A01 T00810065  RH  090%=      5-min Rain = 0
KCL2 091357Z 23003KT 08/07 A3027 RMK A01 T00820065  RH  089%=      5-min Rain = 0
KCL2 091358Z 23003KT 08/07 A3026 RMK A01 T00820065  RH  089%=      5-min Rain = 0
KCL2 091359Z 22002KT 08/07 A3027 RMK A01 T00830066  RH  089%=      5-min Rain = 0
KCL2 091400Z 23002KT 08/07 A3027 RMK A01 T00840067  RH  089%=      5-min Rain = 0
KCL2 091401Z 23003KT 09/07 A3027 RMK A01 T00850069  RH  089%=      5-min Rain = 0
KCL2 091402Z 23003KT 09/07 A3027 RMK A01 T00850068  RH  089%=      5-min Rain = 0
KCL2 091403Z 24002KT 09/07 A3027 RMK A01 T00860068  RH  089%=      5-min Rain = 0
KCL2 091404Z 24002KT 09/07 A3027 RMK A01 T00870069  RH  089%=      5-min Rain = 0
KCL2 091405Z 23003KT 09/07 A3027 RMK A01 T00880069  RH  088%=      5-min Rain = 0
KCL2 091406Z 25003KT 09/07 A3027 RMK A01 T00880070  RH  088%=      5-min Rain = 0
KCL2 091407Z 24004KT 09/07 A3027 RMK A01 T00890071  RH  088%=      5-min Rain = 0
KCL2 091408Z 24003KT 09/07 A3027 RMK A01 T00890070  RH  087%=      5-min Rain = 0
KCL2 091409Z 24004KT 09/07 A3027 RMK A01 T00900070  RH  087%=      5-min Rain = 0
KCL2 091410Z 24004KT 09/07 A3027 RMK A01 T00900069  RH  087%=      5-min Rain = 0
KCL2 091411Z 24004KT 09/07 A3027 RMK A01 T00900068  RH  086%=      5-min Rain = 0
KCL2 091412Z 24004KT 09/07 A3027 RMK A01 T00920070  RH  087%=      5-min Rain = 0
KCL2 091413Z 24004KT 09/07 A3027 RMK A01 T00920070  RH  086%=      5-min Rain = 0
KCL2 091414Z 24004KT 09/07 A3027 RMK A01 T00920070  RH  086%=      5-min Rain = 0
KCL2 091415Z 24004KT 09/07 A3027 RMK A01 T00930072  RH  087%=      5-min Rain = 0
KCL2 091416Z 24004KT 09/07 A3027 RMK A01 T00940073  RH  087%=      5-min Rain = 0
KCL2 091417Z 23004KT 09/07 A3027 RMK A01 T00940073  RH  087%=      5-min Rain = 0
KCL2 091418Z 24005KT 09/07 A3027 RMK A01 T00940072  RH  086%=      5-min Rain = 0
KCL2 091419Z 24005KT 09/07 A3027 RMK A01 T00940072  RH  086%=      5-min Rain = 0
KCL2 091420Z 24004KT 10/07 A3027 RMK A01 T00950072  RH  085%=      5-min Rain = 0
KCL2 091421Z 24004KT 10/07 A3027 RMK A01 T00960074  RH  086%=      5-min Rain = 0
KCL2 091422Z 24004KT 10/07 A3027 RMK A01 T00960074  RH  086%=      5-min Rain = 0
KCL2 091423Z 23005KT 10/08 A3027 RMK A01 T00970075  RH  086%=      5-min Rain = 0
KCL2 091424Z 24005KT 10/08 A3027 RMK A01 T00980075  RH  085%=      5-min Rain = 0
KCL2 091425Z 24006KT 10/08 A3027 RMK A01 T00990075  RH  085%=      5-min Rain = 0
KCL2 091426Z 24005KT 10/07 A3027 RMK A01 T00990074  RH  084%=      5-min Rain = 0
KCL2 091427Z 24005KT 10/08 A3027 RMK A01 T00990075  RH  085%=      5-min Rain = 0
KCL2 091428Z 24005KT 10/08 A3027 RMK A01 T01010077  RH  085%=      5-min Rain = 0
KCL2 091429Z 24006KT 10/08 A3027 RMK A01 T01010076  RH  085%=      5-min Rain = 0
KCL2 091430Z 24004KT 10/08 A3027 RMK A01 T01020078  RH  085%=      5-min Rain = 0
KCL2 091431Z 24005KT 10/08 A3027 RMK A01 T01030078  RH  085%=      5-min Rain = 0
KCL2 091432Z 25006KT 10/08 A3027 RMK A01 T01030079  RH  085%=      5-min Rain = 0
KCL2 091433Z 25006KT 10/08 A3027 RMK A01 T01040079  RH  085%=      5-min Rain = 0
KCL2 091434Z 25006KT 10/08 A3028 RMK A01 T01040079  RH  084%=      5-min Rain = 0
KCL2 091435Z 25007KT 10/08 A3028 RMK A01 T01040077  RH  083%=      5-min Rain = 0
KCL2 091436Z 24007KT 10/08 A3028 RMK A01 T01040076  RH  083%=      5-min Rain = 0
KCL2 091437Z 25007KT 11/08 A3028 RMK A01 T01050076  RH  083%=      5-min Rain = 0
KCL2 091438Z 25006KT 11/08 A3028 RMK A01 T01060077  RH  083%=      5-min Rain = 0
KCL2 091439Z 25006KT 11/08 A3028 RMK A01 T01060078  RH  083%=      5-min Rain = 0
KCL2 091440Z 25007KT 11/08 A3028 RMK A01 T01060079  RH  083%=      5-min Rain = 0
KCL2 091441Z 26006KT 11/08 A3028 RMK A01 T01070078  RH  082%=      5-min Rain = 0
KCL2 091442Z 26005KT 11/08 A3028 RMK A01 T01070079  RH  083%=      5-min Rain = 0
KCL2 091443Z 26006KT 11/08 A3028 RMK A01 T01080080  RH  083%=      5-min Rain = 0
KCL2 091444Z 25006KT 11/08 A3028 RMK A01 T01080079  RH  082%=      5-min Rain = 0
KCL2 091445Z 26007KT 11/08 A3028 RMK A01 T01090080  RH  082%=      5-min Rain = 0
KCL2 091446Z 24007KT 11/08 A3028 RMK A01 T01100081  RH  082%=      5-min Rain = 0
KCL2 091447Z 25007KT 11/08 A3028 RMK A01 T01110082  RH  082%=      5-min Rain = 0
KCL2 091448Z 25007KT 11/08 A3028 RMK A01 T01120083  RH  082%=      5-min Rain = 0
KCL2 091449Z 25008KT 11/08 A3028 RMK A01 T01120080  RH  081%=      5-min Rain = 0
KCL2 091450Z 25006KT 11/08 A3028 RMK A01 T01130081  RH  081%=      5-min Rain = 0
KCL2 091451Z 25009KT 11/08 A3028 RMK A01 T01130081  RH  080%=      5-min Rain = 0
KCL2 091452Z 26009KT 11/08 A3028 RMK A01 T01130078  RH  079%=      5-min Rain = 0
KCL2 091453Z 25008KT 11/08 A3028 RMK A01 T01130079  RH  080%=      5-min Rain = 0
KCL2 091454Z 25009KT 11/08 A3028 RMK A01 T01130081  RH  080%=      5-min Rain = 0
KCL2 091455Z 26007KT 11/08 A3028 RMK A01 T01140079  RH  079%=      5-min Rain = 0
KCL2 091456Z 25007KT 11/08 A3028 RMK A01 T01140081  RH  080%=      5-min Rain = 0
KCL2 091457Z 24007KT 12/08 A3028 RMK A01 T01150083  RH  081%=      5-min Rain = 0
KCL2 091458Z 24008KT 12/08 A3028 RMK A01 T01170083  RH  080%=      5-min Rain = 0
KCL2 091459Z 25008KT 12/08 A3028 RMK A01 T01170082  RH  079%=      5-min Rain = 0
KCL2 091500Z 25009KT 12/08 A3028 RMK A01 T01170082  RH  079%=      5-min Rain = 0
KCL2 091501Z 25009KT 12/08 A3028 RMK A01 T01170081  RH  078%=      5-min Rain = 0
KCL2 091502Z 25009KT 12/08 A3028 RMK A01 T01170079  RH  078%=      5-min Rain = 0
KCL2 091503Z 26009KT 12/08 A3028 RMK A01 T01170081  RH  079%=      5-min Rain = 0
KCL2 091504Z 26007KT 12/08 A3028 RMK A01 T01170080  RH  078%=      5-min Rain = 0
KCL2 091505Z 24007KT 12/09 A3028 RMK A01 T01180085  RH  080%=      5-min Rain = 0
KCL2 091506Z 24009KT 12/08 A3028 RMK A01 T01190082  RH  078%=      5-min Rain = 0
KCL2 091507Z 24009KT 12/08 A3028 RMK A01 T01190080  RH  077%=      5-min Rain = 0
KCL2 091508Z 24009KT 12/08 A3028 RMK A01 T01180081  RH  078%=      5-min Rain = 0
KCL2 091509Z 24009KT 12/08 A3028 RMK A01 T01190082  RH  078%=      5-min Rain = 0
KCL2 091510Z 24010KT 12/08 A3028 RMK A01 T01190081  RH  078%=      5-min Rain = 0
KCL2 091511Z 24009KT 12/08 A3028 RMK A01 T01190081  RH  077%=      5-min Rain = 0
KCL2 091512Z 23008KT 12/08 A3028 RMK A01 T01180081  RH  078%=      5-min Rain = 0
KCL2 091513Z 24009KT 12/08 A3028 RMK A01 T01190082  RH  078%=      5-min Rain = 0
KCL2 091514Z 25009KT 12/08 A3028 RMK A01 T01200083  RH  078%=      5-min Rain = 0
KCL2 091515Z 25008KT 12/08 A3028 RMK A01 T01200083  RH  078%=      5-min Rain = 0
KCL2 091516Z 24009KT 12/08 A3028 RMK A01 T01220084  RH  078%=      5-min Rain = 0
KCL2 091517Z 24009KT 12/08 A3028 RMK A01 T01220082  RH  076%=      5-min Rain = 0
KCL2 091518Z 24008KT 12/08 A3028 RMK A01 T01220084  RH  077%=      5-min Rain = 0
KCL2 091519Z 24010KT 12/09 A3028 RMK A01 T01230085  RH  077%=      5-min Rain = 0
KCL2 091520Z 24008KT 12/08 A3028 RMK A01 T01240084  RH  077%=      5-min Rain = 0
KCL2 091521Z 25010KT 13/08 A3028 RMK A01 T01250084  RH  076%=      5-min Rain = 0
KCL2 091522Z 25009KT 12/08 A3028 RMK A01 T01240082  RH  076%=      5-min Rain = 0
KCL2 091523Z 25008KT 12/08 A3028 RMK A01 T01240083  RH  076%=      5-min Rain = 0
KCL2 091524Z 25010KT 12/08 A3028 RMK A01 T01230081  RH  075%=      5-min Rain = 0
KCL2 091525Z 25010KT 12/08 A3028 RMK A01 T01230080  RH  075%=      5-min Rain = 0
KCL2 091526Z 25008KT 12/08 A3028 RMK A01 T01230082  RH  076%=      5-min Rain = 0
KCL2 091527Z 26009KT 12/08 A3028 RMK A01 T01230082  RH  076%=      5-min Rain = 0
KCL2 091528Z 25009KT 12/08 A3028 RMK A01 T01230082  RH  076%=      5-min Rain = 0
KCL2 091529Z 25009KT 12/08 A3028 RMK A01 T01240082  RH  075%=      5-min Rain = 0
KCL2 091530Z 26009KT 12/08 A3028 RMK A01 T01240081  RH  075%=      5-min Rain = 0
KCL2 091531Z 26008KT 12/08 A3028 RMK A01 T01230082  RH  076%=      5-min Rain = 0
KCL2 091532Z 26008KT 12/08 A3028 RMK A01 T01240084  RH  076%=      5-min Rain = 0
KCL2 091533Z 26007KT 13/08 A3028 RMK A01 T01250082  RH  075%=      5-min Rain = 0
KCL2 091534Z 26006KT 13/08 A3028 RMK A01 T01260083  RH  075%=      5-min Rain = 0
KCL2 091535Z 26007KT 13/09 A3028 RMK A01 T01270087  RH  076%=      5-min Rain = 0
KCL2 091536Z 26006KT 13/09 A3028 RMK A01 T01290086  RH  075%=      5-min Rain = 0
KCL2 091537Z 25005KT 13/09 A3028 RMK A01 T01310090  RH  076%=      5-min Rain = 0
KCL2 091538Z 27007KT 13/09 A3028 RMK A01 T01330088  RH  074%=      5-min Rain = 0
KCL2 091539Z 27007KT 13/09 A3028 RMK A01 T01330087  RH  073%=      5-min Rain = 0
KCL2 091540Z 26007KT 13/09 A3028 RMK A01 T01330087  RH  074%=      5-min Rain = 0
KCL2 091541Z 25007KT 13/08 A3028 RMK A01 T01320084  RH  073%=      5-min Rain = 0
KCL2 091542Z 26006KT 13/09 A3028 RMK A01 T01310085  RH  074%=      5-min Rain = 0
KCL2 091543Z 26007KT 13/09 A3028 RMK A01 T01320087  RH  074%=      5-min Rain = 0
KCL2 091544Z 25007KT 13/09 A3028 RMK A01 T01330087  RH  074%=      5-min Rain = 0
KCL2 091545Z 25006KT 13/09 A3028 RMK A01 T01340087  RH  073%=      5-min Rain = 0
KCL2 091546Z 25009KT 14/09 A3028 RMK A01 T01350087  RH  073%=      5-min Rain = 0
KCL2 091547Z 25009KT 13/09 A3028 RMK A01 T01340085  RH  072%=      5-min Rain = 0
KCL2 091548Z 24008KT 13/09 A3028 RMK A01 T01330086  RH  073%=      5-min Rain = 0
KCL2 091549Z 23008KT 13/09 A3028 RMK A01 T01330086  RH  073%=      5-min Rain = 0
KCL2 091550Z 24008KT 13/09 A3028 RMK A01 T01340086  RH  073%=      5-min Rain = 0
KCL2 091551Z 24009KT 13/09 A3028 RMK A01 T01340086  RH  073%=      5-min Rain = 0
KCL2 091552Z 25009KT 14/09 A3028 RMK A01 T01350087  RH  073%=      5-min Rain = 0
KCL2 091553Z 25008KT 14/09 A3028 RMK A01 T01350087  RH  073%=      5-min Rain = 0
KCL2 091554Z 25009KT 14/09 A3028 RMK A01 T01350086  RH  072%=      5-min Rain = 0
KCL2 091555Z 25007KT 14/09 A3028 RMK A01 T01360087  RH  072%=      5-min Rain = 0
KCL2 091556Z 27007KT 14/09 A3028 RMK A01 T01360087  RH  072%=      5-min Rain = 0
KCL2 091557Z 26008KT 14/09 A3028 RMK A01 T01360087  RH  072%=      5-min Rain = 0
KCL2 091558Z 25008KT 14/09 A3028 RMK A01 T01370087  RH  072%=      5-min Rain = 0
KCL2 091559Z 25008KT 14/09 A3028 RMK A01 T01370090  RH  073%=      5-min Rain = 0
KCL2 091600Z 25008KT 14/09 A3028 RMK A01 T01400089  RH  071%=      5-min Rain = 0
KCL2 091601Z 25007KT 14/09 A3028 RMK A01 T01410089  RH  071%=      5-min Rain = 0
KCL2 091602Z 26007KT 14/09 A3028 RMK A01 T01410090  RH  071%=      5-min Rain = 0
KCL2 091603Z 25008KT 14/09 A3028 RMK A01 T01420090  RH  071%=      5-min Rain = 0
KCL2 091604Z 24008KT 14/09 A3028 RMK A01 T01440090  RH  070%=      5-min Rain = 0
KCL2 091605Z 25008KT 14/09 A3028 RMK A01 T01440089  RH  070%=      5-min Rain = 0
KCL2 091606Z 25010KT 14/09 A3028 RMK A01 T01430089  RH  070%=      5-min Rain = 0
KCL2 091607Z 25009KT 14/09 A3028 RMK A01 T01420087  RH  069%=      5-min Rain = 0
KCL2 091608Z 26009KT 14/09 A3028 RMK A01 T01410089  RH  071%=      5-min Rain = 0
KCL2 091609Z 26006KT 14/09 A3028 RMK A01 T01420089  RH  070%=      5-min Rain = 0
KCL2 091610Z 26010KT 14/09 A3028 RMK A01 T01440091  RH  070%=      5-min Rain = 0
KCL2 091611Z 25009KT 15/09 A3028 RMK A01 T01450090  RH  070%=      5-min Rain = 0
KCL2 091612Z 25008KT 15/09 A3028 RMK A01 T01450090  RH  069%=      5-min Rain = 0
KCL2 091613Z 25009G14KT 15/09 A3028 RMK A01 T01470093  RH  070%=      5-min Rain = 0
KCL2 091614Z 24012KT 15/09 A3028 RMK A01 T01490090  RH  068%=      5-min Rain = 0
KCL2 091615Z 24011KT 15/09 A3028 RMK A01 T01470090  RH  068%=      5-min Rain = 0
KCL2 091616Z 24011KT 15/09 A3028 RMK A01 T01460090  RH  069%=      5-min Rain = 0
KCL2 091617Z 23010KT 15/09 A3027 RMK A01 T01460090  RH  069%=      5-min Rain = 0
KCL2 091618Z 24011KT 15/09 A3027 RMK A01 T01460090  RH  069%=      5-min Rain = 0
KCL2 091619Z 25011KT 15/09 A3027 RMK A01 T01470090  RH  069%=      5-min Rain = 0
KCL2 091620Z 26011KT 15/09 A3027 RMK A01 T01470090  RH  069%=      5-min Rain = 0
KCL2 091621Z 26008KT 15/09 A3028 RMK A01 T01470092  RH  070%=      5-min Rain = 0
KCL2 091622Z 24010KT 15/09 A3027 RMK A01 T01510094  RH  069%=      5-min Rain = 0
KCL2 091623Z 25009KT 15/09 A3027 RMK A01 T01510091  RH  067%=      5-min Rain = 0
KCL2 091624Z 25010KT 15/09 A3027 RMK A01 T01500092  RH  068%=      5-min Rain = 0
KCL2 091625Z 24011KT 15/09 A3027 RMK A01 T01500092  RH  068%=      5-min Rain = 0
KCL2 091626Z 24010KT 15/09 A3027 RMK A01 T01510093  RH  068%=      5-min Rain = 0
KCL2 091627Z 24010KT 15/09 A3027 RMK A01 T01520091  RH  067%=      5-min Rain = 0
KCL2 091628Z 24013KT 15/09 A3027 RMK A01 T01510091  RH  067%=      5-min Rain = 0
KCL2 091629Z 24010KT 15/09 A3027 RMK A01 T01490090  RH  068%=      5-min Rain = 0
KCL2 091630Z 24008KT 15/09 A3028 RMK A01 T01470090  RH  068%=      5-min Rain = 0
KCL2 091631Z 26010KT 15/09 A3028 RMK A01 T01470091  RH  069%=      5-min Rain = 0
KCL2 091632Z 26008KT 15/09 A3028 RMK A01 T01490092  RH  069%=      5-min Rain = 0
KCL2 091633Z 27008KT 15/09 A3028 RMK A01 T01510092  RH  068%=      5-min Rain = 0
KCL2 091634Z 28008KT 15/09 A3028 RMK A01 T01510091  RH  067%=      5-min Rain = 0
KCL2 091635Z 27009KT 15/09 A3028 RMK A01 T01510093  RH  068%=      5-min Rain = 0
KCL2 091636Z 27010KT 15/09 A3028 RMK A01 T01520091  RH  067%=      5-min Rain = 0
KCL2 091637Z 26008KT 15/09 A3028 RMK A01 T01510091  RH  067%=      5-min Rain = 0
KCL2 091638Z 27007KT 15/09 A3028 RMK A01 T01510093  RH  068%=      5-min Rain = 0
KCL2 091639Z 27007KT 15/09 A3027 RMK A01 T01520092  RH  067%=      5-min Rain = 0
KCL2 091640Z 27009KT 15/09 A3027 RMK A01 T01530094  RH  068%=      5-min Rain = 0
KCL2 091641Z 26010KT 16/09 A3027 RMK A01 T01550093  RH  067%=      5-min Rain = 0
KCL2 091642Z 25009KT 16/09 A3027 RMK A01 T01550093  RH  066%=      5-min Rain = 0
KCL2 091643Z 27010KT 16/09 A3027 RMK A01 T01550093  RH  067%=      5-min Rain = 0
KCL2 091644Z 27009KT 16/09 A3027 RMK A01 T01550094  RH  067%=      5-min Rain = 0
KCL2 091645Z 27010KT 16/09 A3027 RMK A01 T01550093  RH  067%=      5-min Rain = 0
KCL2 091646Z 27008KT 15/09 A3027 RMK A01 T01540093  RH  067%=      5-min Rain = 0
KCL2 091647Z 26007KT 16/10 A3027 RMK A01 T01550096  RH  068%=      5-min Rain = 0
KCL2 091648Z 26008KT 16/10 A3027 RMK A01 T01590097  RH  066%=      5-min Rain = 0
KCL2 091649Z 25008KT 16/10 A3027 RMK A01 T01600097  RH  066%=      5-min Rain = 0
KCL2 091650Z 25010KT 16/10 A3027 RMK A01 T01620098  RH  066%=      5-min Rain = 0
KCL2 091651Z 25012KT 16/10 A3027 RMK A01 T01640097  RH  065%=      5-min Rain = 0
KCL2 091652Z 26010KT 16/10 A3027 RMK A01 T01630098  RH  065%=      5-min Rain = 0
KCL2 091653Z 24012KT 16/10 A3027 RMK A01 T01620098  RH  065%=      5-min Rain = 0
KCL2 091654Z 24011KT 16/10 A3027 RMK A01 T01620098  RH  066%=      5-min Rain = 0
KCL2 091655Z 23009KT 16/10 A3027 RMK A01 T01610098  RH  066%=      5-min Rain = 0
KCL2 091656Z 25009G15KT 16/10 A3027 RMK A01 T01600097  RH  066%=      5-min Rain = 0
KCL2 091657Z 26010KT 16/10 A3026 RMK A01 T01600099  RH  067%=      5-min Rain = 0
KCL2 091658Z 27009KT 16/10 A3026 RMK A01 T01610100  RH  067%=      5-min Rain = 0
KCL2 091659Z 26010KT 16/10 A3026 RMK A01 T01610100  RH  067%=      5-min Rain = 0
KCL2 091700Z 24009KT 16/10 A3026 RMK A01 T01620100  RH  067%=      5-min Rain = 0
KCL2 091701Z 24010KT 17/10 A3026 RMK A01 T01650103  RH  067%=      5-min Rain = 0
KCL2 091702Z 23011KT 17/10 A3026 RMK A01 T01680102  RH  065%=      5-min Rain = 0
KCL2 091703Z 23011KT 17/10 A3026 RMK A01 T01650101  RH  066%=      5-min Rain = 0
KCL2 091704Z 24012KT 16/10 A3026 RMK A01 T01640101  RH  066%=      5-min Rain = 0
KCL2 091705Z 26011KT 16/10 A3026 RMK A01 T01630101  RH  067%=      5-min Rain = 0
KCL2 091706Z 25009KT 16/10 A3026 RMK A01 T01630101  RH  067%=      5-min Rain = 0
KCL2 091707Z 24009KT 16/10 A3026 RMK A01 T01640103  RH  067%=      5-min Rain = 0
KCL2 091708Z 24012KT 17/10 A3026 RMK A01 T01670104  RH  066%=      5-min Rain = 0
KCL2 091709Z 24012KT 17/10 A3026 RMK A01 T01660103  RH  066%=      5-min Rain = 0
KCL2 091710Z 25011KT 16/10 A3026 RMK A01 T01640103  RH  067%=      5-min Rain = 0
KCL2 091711Z 25011KT 16/10 A3026 RMK A01 T01630103  RH  068%=      5-min Rain = 0
KCL2 091712Z 26008KT 16/10 A3026 RMK A01 T01620103  RH  068%=      5-min Rain = 0
KCL2 091713Z 23011KT 16/10 A3026 RMK A01 T01620104  RH  069%=      5-min Rain = 0
KCL2 091714Z 23013KT 16/11 A3026 RMK A01 T01640105  RH  068%=      5-min Rain = 0
KCL2 091715Z 23012KT 17/11 A3026 RMK A01 T01660105  RH  067%=      5-min Rain = 0
KCL2 091716Z 23011KT 17/11 A3026 RMK A01 T01660105  RH  067%=      5-min Rain = 0
KCL2 091717Z 24011KT 17/11 A3026 RMK A01 T01660106  RH  068%=      5-min Rain = 0
KCL2 091718Z 23011KT 17/11 A3026 RMK A01 T01650105  RH  068%=      5-min Rain = 0
KCL2 091719Z 23010KT 17/11 A3026 RMK A01 T01650105  RH  068%=      5-min Rain = 0
KCL2 091720Z 25012KT 17/11 A3026 RMK A01 T01650107  RH  069%=      5-min Rain = 0
KCL2 091721Z 25010KT 17/11 A3026 RMK A01 T01660106  RH  067%=      5-min Rain = 0
KCL2 091722Z 25009KT 17/11 A3026 RMK A01 T01650106  RH  068%=      5-min Rain = 0
KCL2 091723Z 24008KT 17/11 A3026 RMK A01 T01660106  RH  068%=      5-min Rain = 0
KCL2 091724Z 25008KT 17/11 A3026 RMK A01 T01680108  RH  068%=      5-min Rain = 0
KCL2 091725Z 23010KT 17/11 A3026 RMK A01 T01700108  RH  067%=      5-min Rain = 0
KCL2 091726Z 24013KT 17/11 A3026 RMK A01 T01710107  RH  066%=      5-min Rain = 0
KCL2 091727Z 25010KT 17/11 A3026 RMK A01 T01690106  RH  067%=      5-min Rain = 0
KCL2 091728Z 24010KT 17/11 A3026 RMK A01 T01670106  RH  068%=      5-min Rain = 0
KCL2 091729Z 24010KT 17/11 A3026 RMK A01 T01680108  RH  068%=      5-min Rain = 0
KCL2 091730Z 24011KT 17/11 A3026 RMK A01 T01700108  RH  067%=      5-min Rain = 0
KCL2 091731Z 24010KT 17/11 A3026 RMK A01 T01700108  RH  067%=      5-min Rain = 0
KCL2 091732Z 23009KT 17/11 A3026 RMK A01 T01700108  RH  067%=      5-min Rain = 0
KCL2 091733Z 26009KT 17/11 A3026 RMK A01 T01720110  RH  067%=      5-min Rain = 0
KCL2 091734Z 26008KT 17/11 A3026 RMK A01 T01740109  RH  066%=      5-min Rain = 0
KCL2 091735Z 24008KT 17/11 A3026 RMK A01 T01740108  RH  065%=      5-min Rain = 0
KCL2 091736Z 24008G13KT 17/11 A3026 RMK A01 T01740111  RH  066%=      5-min Rain = 0
KCL2 091737Z 24009KT 18/11 A3026 RMK A01 T01770109  RH  065%=      5-min Rain = 0
KCL2 091738Z 24008KT 17/11 A3026 RMK A01 T01740108  RH  065%=      5-min Rain = 0
KCL2 091739Z 25007KT 17/11 A3026 RMK A01 T01740109  RH  066%=      5-min Rain = 0
KCL2 091740Z 25007KT 18/11 A3026 RMK A01 T01760110  RH  065%=      5-min Rain = 0
KCL2 091741Z 24007KT 18/11 A3026 RMK A01 T01780111  RH  065%=      5-min Rain = 0
KCL2 091742Z 24008KT 18/11 A3026 RMK A01 T01780109  RH  064%=      5-min Rain = 0
KCL2 091743Z 26012KT 18/11 A3025 RMK A01 T01770110  RH  065%=      5-min Rain = 0
KCL2 091744Z 26012KT 18/11 A3025 RMK A01 T01760109  RH  064%=      5-min Rain = 0
KCL2 091745Z 26010KT 17/11 A3025 RMK A01 T01740108  RH  065%=      5-min Rain = 0
KCL2 091746Z 24008KT 17/11 A3025 RMK A01 T01720108  RH  066%=      5-min Rain = 0
KCL2 091747Z 23008KT 17/11 A3025 RMK A01 T01710108  RH  067%=      5-min Rain = 0
KCL2 091748Z 25009KT 17/11 A3025 RMK A01 T01720110  RH  067%=      5-min Rain = 0
KCL2 091749Z 24009KT 18/11 A3025 RMK A01 T01760112  RH  066%=      5-min Rain = 0
KCL2 091750Z 23008KT 18/11 A3025 RMK A01 T01770111  RH  065%=      5-min Rain = 0
KCL2 091751Z 24009KT 18/11 A3025 RMK A01 T01800112  RH  065%=      5-min Rain = 0
KCL2 091752Z 23011KT 18/11 A3025 RMK A01 T01820112  RH  064%=      5-min Rain = 0
KCL2 091753Z 26009KT 18/11 A3025 RMK A01 T01820111  RH  063%=      5-min Rain = 0
KCL2 091754Z 24006KT 18/11 A3025 RMK A01 T01810111  RH  064%=      5-min Rain = 0
KCL2 091755Z 24011KT 18/11 A3025 RMK A01 T01800111  RH  064%=      5-min Rain = 0
KCL2 091756Z 23010KT 18/11 A3025 RMK A01 T01800112  RH  064%=      5-min Rain = 0
KCL2 091757Z 25012KT 18/11 A3024 RMK A01 T01820112  RH  064%=      5-min Rain = 0
KCL2 091758Z 25011KT 18/11 A3024 RMK A01 T01810110  RH  063%=      5-min Rain = 0
KCL2 091759Z 25008KT 18/11 A3024 RMK A01 T01780110  RH  064%=      5-min Rain = 0
KCL2 091800Z 24007KT 18/11 A3024 RMK A01 T01790112  RH  065%=      5-min Rain = 0
KCL2 091801Z 26008KT 18/11 A3024 RMK A01 T01800112  RH  065%=      5-min Rain = 0
KCL2 091802Z 24009KT 18/11 A3024 RMK A01 T01830114  RH  064%=      5-min Rain = 0
KCL2 091803Z 23009KT 19/11 A3024 RMK A01 T01850113  RH  063%=      5-min Rain = 0
KCL2 091804Z 24007KT 18/11 A3024 RMK A01 T01820111  RH  063%=      5-min Rain = 0
KCL2 091805Z 25006KT 18/11 A3024 RMK A01 T01790112  RH  064%=      5-min Rain = 0
KCL2 091806Z 23007KT 18/11 A3024 RMK A01 T01790113  RH  065%=      5-min Rain = 0
KCL2 091807Z 22006KT 18/11 A3024 RMK A01 T01810113  RH  064%=      5-min Rain = 0
KCL2 091808Z 24008KT 18/11 A3024 RMK A01 T01820114  RH  065%=      5-min Rain = 0
KCL2 091809Z 25009KT 18/11 A3024 RMK A01 T01840114  RH  064%=      5-min Rain = 0
KCL2 091810Z 26007KT 18/11 A3024 RMK A01 T01830113  RH  064%=      5-min Rain = 0
KCL2 091811Z 25007KT 18/11 A3024 RMK A01 T01830114  RH  064%=      5-min Rain = 0
KCL2 091812Z 26007KT 18/11 A3023 RMK A01 T01840114  RH  064%=      5-min Rain = 0
KCL2 091813Z 24011KT 19/12 A3023 RMK A01 T01860116  RH  064%=      5-min Rain = 0
KCL2 091814Z 23009KT 19/11 A3024 RMK A01 T01870114  RH  063%=      5-min Rain = 0
KCL2 091815Z 24009KT 19/11 A3023 RMK A01 T01860114  RH  063%=      5-min Rain = 0
KCL2 091816Z 24007KT 18/12 A3023 RMK A01 T01840115  RH  064%=      5-min Rain = 0
KCL2 091817Z 22007KT 18/12 A3023 RMK A01 T01840115  RH  064%=      5-min Rain = 0
KCL2 091818Z 22011KT 19/12 A3023 RMK A01 T01860115  RH  063%=      5-min Rain = 0
KCL2 091819Z 22010KT 19/11 A3023 RMK A01 T01860114  RH  063%=      5-min Rain = 0
KCL2 091820Z 21009KT 19/11 A3023 RMK A01 T01850114  RH  063%=      5-min Rain = 0
KCL2 091821Z 23009KT 19/11 A3023 RMK A01 T01850114  RH  064%=      5-min Rain = 0
KCL2 091822Z 23011KT 19/11 A3023 RMK A01 T01850114  RH  063%=      5-min Rain = 0
KCL2 091823Z 24009KT 18/11 A3023 RMK A01 T01840114  RH  064%=      5-min Rain = 0
KCL2 091824Z 23010KT 18/11 A3023 RMK A01 T01830114  RH  064%=      5-min Rain = 0
KCL2 091825Z 23008KT 18/12 A3023 RMK A01 T01840115  RH  064%=      5-min Rain = 0
KCL2 091826Z 24009KT 18/12 A3023 RMK A01 T01840115  RH  064%=      5-min Rain = 0
KCL2 091827Z 26007KT 19/12 A3023 RMK A01 T01860116  RH  064%=      5-min Rain = 0
KCL2 091828Z 23005KT 19/12 A3023 RMK A01 T01880116  RH  063%=      5-min Rain = 0
KCL2 091829Z 23005KT 19/11 A3022 RMK A01 T01870114  RH  063%=      5-min Rain = 0
KCL2 091830Z 23009KT 19/12 A3022 RMK A01 T01860116  RH  064%=      5-min Rain = 0
KCL2 091831Z 24009KT 19/12 A3022 RMK A01 T01880115  RH  062%=      5-min Rain = 0
KCL2 091832Z 24008KT 19/11 A3022 RMK A01 T01870112  RH  062%=      5-min Rain = 0
KCL2 091833Z 23008KT 19/11 A3022 RMK A01 T01850114  RH  063%=      5-min Rain = 0
KCL2 091834Z 24007KT 19/12 A3022 RMK A01 T01850115  RH  064%=      5-min Rain = 0
KCL2 091835Z 23006KT 19/12 A3022 RMK A01 T01860115  RH  063%=      5-min Rain = 0
KCL2 091836Z 23005KT 19/12 A3022 RMK A01 T01860116  RH  064%=      5-min Rain = 0
KCL2 091837Z 22006KT 19/12 A3022 RMK A01 T01880116  RH  063%=      5-min Rain = 0
KCL2 091838Z 22006KT 19/12 A3022 RMK A01 T01880116  RH  063%=      5-min Rain = 0
KCL2 091839Z 25007KT 19/12 A3022 RMK A01 T01870116  RH  063%=      5-min Rain = 0
KCL2 091840Z 25009KT 19/11 A3022 RMK A01 T01870114  RH  063%=      5-min Rain = 0
KCL2 091841Z 26008KT 19/11 A3022 RMK A01 T01870114  RH  062%=      5-min Rain = 0
KCL2 091842Z 24009KT 19/11 A3021 RMK A01 T01880114  RH  062%=      5-min Rain = 0
KCL2 091843Z 24008KT 19/11 A3021 RMK A01 T01880114  RH  062%=      5-min Rain = 0
KCL2 091844Z 23008KT 19/12 A3021 RMK A01 T01890115  RH  062%=      5-min Rain = 0
KCL2 091845Z 24007KT 19/12 A3021 RMK A01 T01910116  RH  062%=      5-min Rain = 0
KCL2 091846Z 22008KT 19/12 A3021 RMK A01 T01930116  RH  061%=      5-min Rain = 0
KCL2 091847Z 24009KT 19/12 A3021 RMK A01 T01910115  RH  061%=      5-min Rain = 0
KCL2 091848Z 24008KT 19/12 A3021 RMK A01 T01900115  RH  062%=      5-min Rain = 0
KCL2 091849Z 25007KT 19/12 A3021 RMK A01 T01910116  RH  062%=      5-min Rain = 0
KCL2 091850Z 25005KT 19/12 A3021 RMK A01 T01910115  RH  061%=      5-min Rain = 0
KCL2 091851Z 25006KT 19/12 A3021 RMK A01 T01900115  RH  062%=      5-min Rain = 0
KCL2 091852Z 26005KT 19/12 A3021 RMK A01 T01900115  RH  062%=      5-min Rain = 0
KCL2 091853Z 23005KT 19/12 A3021 RMK A01 T01900115  RH  062%=      5-min Rain = 0
KCL2 091854Z 24005KT 19/12 A3021 RMK A01 T01910117  RH  062%=      5-min Rain = 0
KCL2 091855Z 25004KT 19/12 A3021 RMK A01 T01920115  RH  061%=      5-min Rain = 0
KCL2 091856Z 23008KT 19/12 A3021 RMK A01 T01930116  RH  061%=      5-min Rain = 0
KCL2 091857Z 22006KT 19/11 A3021 RMK A01 T01940114  RH  060%=      5-min Rain = 0
KCL2 091858Z 22006KT 19/11 A3021 RMK A01 T01910114  RH  061%=      5-min Rain = 0
KCL2 091859Z 23006KT 19/12 A3021 RMK A01 T01920116  RH  061%=      5-min Rain = 0
KCL2 091900Z 22007KT 20/12 A302 RMK A01 T01950116  RH  060%=      5-min Rain = 0
KCL2 091901Z 21006KT 20/12 A302 RMK A01 T01950115  RH  060%=      5-min Rain = 0
KCL2 091902Z 24002KT 19/11 A302 RMK A01 T01930114  RH  060%=      5-min Rain = 0
KCL2 091903Z 18003KT 19/12 A302 RMK A01 T01910116  RH  062%=      5-min Rain = 0
KCL2 091904Z 17004KT 19/12 A302 RMK A01 T01910116  RH  062%=      5-min Rain = 0
KCL2 091905Z 24005KT 19/12 A302 RMK A01 T01910117  RH  062%=      5-min Rain = 0
KCL2 091906Z 24007KT 19/12 A302 RMK A01 T01930118  RH  062%=      5-min Rain = 0
KCL2 091907Z 21007KT 20/12 A302 RMK A01 T01980120  RH  061%=      5-min Rain = 0
KCL2 091908Z 22008KT 20/12 A302 RMK A01 T02020121  RH  059%=      5-min Rain = 0
KCL2 091909Z 23005KT 20/12 A302 RMK A01 T02030118  RH  058%=      5-min Rain = 0
KCL2 091910Z 20006KT 20/12 A302 RMK A01 T02000119  RH  059%=      5-min Rain = 0
KCL2 091911Z 23008KT 20/12 A302 RMK A01 T02010120  RH  059%=      5-min Rain = 0
KCL2 091912Z 24010KT 20/12 A302 RMK A01 T02030119  RH  058%=      5-min Rain = 0
KCL2 091913Z 25010KT 20/12 A302 RMK A01 T02020117  RH  058%=      5-min Rain = 0
KCL2 091914Z 25009KT 20/12 A302 RMK A01 T02010117  RH  058%=      5-min Rain = 0
KCL2 091915Z 25006KT 20/12 A302 RMK A01 T02000116  RH  058%=      5-min Rain = 0
KCL2 091916Z 22006KT 20/12 A302 RMK A01 T01990117  RH  059%=      5-min Rain = 0
KCL2 091917Z 22007KT 20/12 A3019 RMK A01 T01990119  RH  060%=      5-min Rain = 0
KCL2 091918Z 21009KT 20/12 A3019 RMK A01 T02010118  RH  059%=      5-min Rain = 0
KCL2 091919Z 21008KT 20/12 A3019 RMK A01 T02010119  RH  059%=      5-min Rain = 0
KCL2 091920Z 21008KT 20/12 A3019 RMK A01 T02000118  RH  059%=      5-min Rain = 0
KCL2 091921Z 22009KT 20/12 A3019 RMK A01 T02020119  RH  059%=      5-min Rain = 0
KCL2 091922Z 22007KT 20/12 A3019 RMK A01 T02020117  RH  058%=      5-min Rain = 0
KCL2 091923Z 21008KT 20/12 A3019 RMK A01 T02000117  RH  059%=      5-min Rain = 0
KCL2 091924Z 22008KT 20/12 A3019 RMK A01 T01990118  RH  059%=      5-min Rain = 0
KCL2 091925Z 21010KT 20/12 A3019 RMK A01 T02010119  RH  059%=      5-min Rain = 0
KCL2 091926Z 22007KT 20/12 A3019 RMK A01 T02010118  RH  059%=      5-min Rain = 0
KCL2 091927Z 23006KT 20/12 A3019 RMK A01 T02010120  RH  059%=      5-min Rain = 0
KCL2 091928Z 23009KT 20/12 A3019 RMK A01 T02040119  RH  058%=      5-min Rain = 0
KCL2 091929Z 23007KT 20/12 A3019 RMK A01 T02040119  RH  058%=      5-min Rain = 0
KCL2 091930Z 23010KT 21/12 A3019 RMK A01 T02050117  RH  057%=      5-min Rain = 0
KCL2 091931Z 22009KT 21/12 A3019 RMK A01 T02050117  RH  057%=      5-min Rain = 0
KCL2 091932Z 21008KT 20/12 A3018 RMK A01 T02040118  RH  058%=      5-min Rain = 0
KCL2 091933Z 21008KT 20/12 A3018 RMK A01 T02020117  RH  058%=      5-min Rain = 0
KCL2 091934Z 23006KT 20/12 A3018 RMK A01 T02010118  RH  059%=      5-min Rain = 0
KCL2 091935Z 21008KT 20/12 A3018 RMK A01 T02010118  RH  059%=      5-min Rain = 0
KCL2 091936Z 23011KT 20/12 A3018 RMK A01 T02010118  RH  058%=      5-min Rain = 0
KCL2 091937Z 23010KT 20/12 A3018 RMK A01 T02030117  RH  058%=      5-min Rain = 0
KCL2 091938Z 22007KT 20/12 A3018 RMK A01 T02030117  RH  058%=      5-min Rain = 0
KCL2 091939Z 21009KT 20/12 A3018 RMK A01 T02020118  RH  058%=      5-min Rain = 0
KCL2 091940Z 21010KT 20/12 A3018 RMK A01 T02040118  RH  057%=      5-min Rain = 0
KCL2 091941Z 22010KT 20/12 A3018 RMK A01 T02040118  RH  057%=      5-min Rain = 0
KCL2 091942Z 21009KT 20/12 A3018 RMK A01 T02030118  RH  058%=      5-min Rain = 0
KCL2 091943Z 22007KT 20/12 A3018 RMK A01 T02030118  RH  058%=      5-min Rain = 0
KCL2 091944Z 22009KT 20/12 A3018 RMK A01 T02040118  RH  058%=      5-min Rain = 0
KCL2 091945Z 24009KT 21/12 A3018 RMK A01 T02060118  RH  057%=      5-min Rain = 0
KCL2 091946Z 24008KT 21/12 A3018 RMK A01 T02070117  RH  056%=      5-min Rain = 0
KCL2 091947Z 23006KT 21/12 A3018 RMK A01 T02070118  RH  057%=      5-min Rain = 0
KCL2 091948Z 23005KT 21/12 A3018 RMK A01 T02090118  RH  056%=      5-min Rain = 0
KCL2 091949Z 22005KT 21/12 A3018 RMK A01 T02080117  RH  056%=      5-min Rain = 0
KCL2 091950Z 23008KT 21/12 A3018 RMK A01 T02070118  RH  057%=      5-min Rain = 0
KCL2 091951Z 23010KT 21/12 A3018 RMK A01 T02070118  RH  057%=      5-min Rain = 0
KCL2 091952Z 24012KT 21/12 A3018 RMK A01 T02080117  RH  056%=      5-min Rain = 0
KCL2 091953Z 25009KT 21/12 A3018 RMK A01 T02070117  RH  056%=      5-min Rain = 0
KCL2 091954Z 23010KT 21/12 A3018 RMK A01 T02050117  RH  057%=      5-min Rain = 0
KCL2 091955Z 21008KT 21/12 A3018 RMK A01 T02060117  RH  057%=      5-min Rain = 0
KCL2 091956Z 23009KT 21/12 A3018 RMK A01 T02080117  RH  056%=      5-min Rain = 0
KCL2 091957Z 24011KT 21/12 A3018 RMK A01 T02080116  RH  056%=      5-min Rain = 0
KCL2 091958Z 24011KT 21/11 A3017 RMK A01 T02080114  RH  055%=      5-min Rain = 0
KCL2 091959Z 25009KT 21/11 A3017 RMK A01 T02060114  RH  055%=      5-min Rain = 0
KCL2 092000Z 25007KT 21/12 A3017 RMK A01 T02060116  RH  056%=      5-min Rain = 0
KCL2 092001Z 25006KT 21/12 A3017 RMK A01 T02070115  RH  055%=      5-min Rain = 0
KCL2 092002Z 22005KT 21/12 A3017 RMK A01 T02080117  RH  056%=      5-min Rain = 0
KCL2 092003Z 22009KT 21/12 A3017 RMK A01 T02110118  RH  055%=      5-min Rain = 0
KCL2 092004Z 22008KT 21/12 A3017 RMK A01 T02100115  RH  055%=      5-min Rain = 0
KCL2 092005Z 22008KT 21/12 A3017 RMK A01 T02070116  RH  056%=      5-min Rain = 0
KCL2 092006Z 21009KT 21/12 A3017 RMK A01 T02070115  RH  056%=      5-min Rain = 0
KCL2 092007Z 20009KT 21/11 A3017 RMK A01 T02090114  RH  054%=      5-min Rain = 0
KCL2 092008Z 21008KT 21/11 A3017 RMK A01 T02090114  RH  055%=      5-min Rain = 0
KCL2 092009Z 22009KT 21/11 A3017 RMK A01 T02090114  RH  055%=      5-min Rain = 0
KCL2 092010Z 22009KT 21/12 A3017 RMK A01 T02080115  RH  055%=      5-min Rain = 0
KCL2 092011Z 22008KT 21/11 A3017 RMK A01 T02070114  RH  055%=      5-min Rain = 0
KCL2 092012Z 22008KT 21/11 A3017 RMK A01 T02080114  RH  055%=      5-min Rain = 0
KCL2 092013Z 22009KT 21/11 A3017 RMK A01 T02080112  RH  054%=      5-min Rain = 0
KCL2 092014Z 22005KT 21/11 A3017 RMK A01 T02070111  RH  054%=      5-min Rain = 0
KCL2 092015Z 23005KT 21/11 A3017 RMK A01 T02060113  RH  055%=      5-min Rain = 0
KCL2 092016Z 21007KT 21/12 A3017 RMK A01 T02060116  RH  056%=      5-min Rain = 0
KCL2 092017Z 21008KT 21/12 A3017 RMK A01 T02080117  RH  056%=      5-min Rain = 0
KCL2 092018Z 22007KT 21/12 A3017 RMK A01 T02090116  RH  055%=      5-min Rain = 0
KCL2 092019Z 20007KT 21/12 A3017 RMK A01 T02080118  RH  056%=      5-min Rain = 0
KCL2 092020Z 21007KT 21/12 A3017 RMK A01 T02080118  RH  056%=      5-min Rain = 0
KCL2 092021Z 21007KT 21/12 A3017 RMK A01 T02070118  RH  057%=      5-min Rain = 0
KCL2 092022Z 22009KT 21/12 A3017 RMK A01 T02060118  RH  057%=      5-min Rain = 0
KCL2 092023Z 20009KT 21/12 A3017 RMK A01 T02070115  RH  056%=      5-min Rain = 0
KCL2 092024Z 21008KT 21/12 A3017 RMK A01 T02080115  RH  055%=      5-min Rain = 0
KCL2 092025Z 22006KT 21/12 A3017 RMK A01 T02090115  RH  055%=      5-min Rain = 0
KCL2 092026Z 24006KT 21/12 A3017 RMK A01 T02090116  RH  055%=      5-min Rain = 0
KCL2 092027Z 24008KT 21/12 A3017 RMK A01 T02110117  RH  055%=      5-min Rain = 0
KCL2 092028Z 25010KT 21/12 A3017 RMK A01 T02120116  RH  054%=      5-min Rain = 0
KCL2 092029Z 24006KT 21/12 A3017 RMK A01 T02120115  RH  054%=      5-min Rain = 0
KCL2 092030Z 24007KT 21/12 A3017 RMK A01 T02130116  RH  054%=      5-min Rain = 0
KCL2 092031Z 22008KT 21/12 A3017 RMK A01 T02130117  RH  054%=      5-min Rain = 0
KCL2 092032Z 24006KT 21/12 A3016 RMK A01 T02120117  RH  055%=      5-min Rain = 0
KCL2 092033Z 25007KT 21/12 A3016 RMK A01 T02120116  RH  054%=      5-min Rain = 0
KCL2 092034Z 26007KT 21/12 A3016 RMK A01 T02130116  RH  054%=      5-min Rain = 0
KCL2 092035Z 25005KT 21/12 A3016 RMK A01 T02140116  RH  054%=      5-min Rain = 0
KCL2 092036Z 24006KT 21/12 A3016 RMK A01 T02140115  RH  053%=      5-min Rain = 0
KCL2 092037Z 24008KT 21/12 A3016 RMK A01 T02140115  RH  053%=      5-min Rain = 0
KCL2 092038Z 23008KT 21/11 A3016 RMK A01 T02130114  RH  053%=      5-min Rain = 0
KCL2 092039Z 22007KT 21/11 A3016 RMK A01 T02130114  RH  053%=      5-min Rain = 0
KCL2 092040Z 24006KT 21/12 A3016 RMK A01 T02120115  RH  054%=      5-min Rain = 0
KCL2 092041Z 24008KT 21/12 A3016 RMK A01 T02120116  RH  054%=      5-min Rain = 0
KCL2 092042Z 23007KT 21/12 A3016 RMK A01 T02110115  RH  054%=      5-min Rain = 0
KCL2 092043Z 25009KT 21/12 A3016 RMK A01 T02100116  RH  055%=      5-min Rain = 0
KCL2 092044Z 24006KT 21/12 A3016 RMK A01 T02110116  RH  054%=      5-min Rain = 0
KCL2 092045Z 25005KT 21/12 A3016 RMK A01 T02130116  RH  054%=      5-min Rain = 0
KCL2 092046Z 24007KT 21/12 A3016 RMK A01 T02140116  RH  054%=      5-min Rain = 0
KCL2 092047Z 25008KT 21/12 A3016 RMK A01 T02140115  RH  053%=      5-min Rain = 0
KCL2 092048Z 25006KT 21/11 A3016 RMK A01 T02140114  RH  053%=      5-min Rain = 0
KCL2 092049Z 24004KT 21/11 A3016 RMK A01 T02130114  RH  053%=      5-min Rain = 0
KCL2 092050Z 23004KT 21/12 A3016 RMK A01 T02110115  RH  054%=      5-min Rain = 0
KCL2 092051Z 24004KT 21/12 A3016 RMK A01 T02110117  RH  055%=      5-min Rain = 0
KCL2 092052Z 24005KT 21/12 A3016 RMK A01 T02120116  RH  054%=      5-min Rain = 0
KCL2 092053Z 21008KT 21/12 A3015 RMK A01 T02130118  RH  054%=      5-min Rain = 0
KCL2 092054Z 20005KT 21/12 A3015 RMK A01 T02130118  RH  055%=      5-min Rain = 0
KCL2 092055Z 20006KT 21/12 A3015 RMK A01 T02120118  RH  055%=      5-min Rain = 0
KCL2 092056Z 21008KT 21/12 A3015 RMK A01 T02140119  RH  055%=      5-min Rain = 0
KCL2 092057Z 22008KT 22/12 A3015 RMK A01 T02150118  RH  054%=      5-min Rain = 0
KCL2 092058Z 24008KT 22/12 A3015 RMK A01 T02160118  RH  054%=      5-min Rain = 0
KCL2 092059Z 24006KT 22/12 A3015 RMK A01 T02170115  RH  052%=      5-min Rain = 0
KCL2 092100Z 24008KT 22/11 A3015 RMK A01 T02170114  RH  052%=      5-min Rain = 0
KCL2 092101Z 22009KT 22/11 A3015 RMK A01 T02170112  RH  051%=      5-min Rain = 0
KCL2 092102Z 24007KT 22/11 A3015 RMK A01 T02170112  RH  051%=      5-min Rain = 0
KCL2 092103Z 25006KT 22/11 A3015 RMK A01 T02170111  RH  051%=      5-min Rain = 0
KCL2 092104Z 26007KT 22/11 A3015 RMK A01 T02150111  RH  051%=      5-min Rain = 0
KCL2 092105Z 24007KT 22/11 A3015 RMK A01 T02150114  RH  052%=      5-min Rain = 0
KCL2 092106Z 24007KT 22/12 A3015 RMK A01 T02170115  RH  053%=      5-min Rain = 0
KCL2 092107Z 25006KT 22/11 A3015 RMK A01 T02160114  RH  052%=      5-min Rain = 0
KCL2 092108Z 25007KT 22/11 A3015 RMK A01 T02150113  RH  052%=      5-min Rain = 0
KCL2 092109Z 25006KT 22/11 A3015 RMK A01 T02150112  RH  052%=      5-min Rain = 0
KCL2 092110Z 25004KT 21/11 A3015 RMK A01 T02140110  RH  051%=      5-min Rain = 0
KCL2 092111Z 25005KT 21/11 A3015 RMK A01 T02130110  RH  052%=      5-min Rain = 0
KCL2 092112Z 25006KT 22/11 A3015 RMK A01 T02150114  RH  053%=      5-min Rain = 0
KCL2 092113Z 25009KT 22/11 A3015 RMK A01 T02170114  RH  052%=      5-min Rain = 0
KCL2 092114Z 23007KT 22/11 A3015 RMK A01 T02170113  RH  052%=      5-min Rain = 0
KCL2 092115Z 24005KT 22/11 A3015 RMK A01 T02160113  RH  052%=      5-min Rain = 0
KCL2 092116Z 23004KT 21/11 A3015 RMK A01 T02140113  RH  052%=      5-min Rain = 0
KCL2 092117Z 22008KT 21/11 A3015 RMK A01 T02140113  RH  052%=      5-min Rain = 0
KCL2 092118Z 23007KT 22/11 A3015 RMK A01 T02160110  RH  051%=      5-min Rain = 0
KCL2 092119Z 23008KT 22/11 A3015 RMK A01 T02150111  RH  051%=      5-min Rain = 0
KCL2 092120Z 23008KT 21/11 A3015 RMK A01 T02140109  RH  051%=      5-min Rain = 0
KCL2 092121Z 22006KT 21/11 A3015 RMK A01 T02140112  RH  052%=      5-min Rain = 0
KCL2 092122Z 21004KT 21/11 A3015 RMK A01 T02130112  RH  052%=      5-min Rain = 0
KCL2 092123Z 21009KT 21/11 A3015 RMK A01 T02120113  RH  053%=      5-min Rain = 0
KCL2 092124Z 21006KT 21/11 A3015 RMK A01 T02120113  RH  053%=      5-min Rain = 0
KCL2 092125Z 21006KT 21/11 A3015 RMK A01 T02120111  RH  053%=      5-min Rain = 0
KCL2 092126Z 20010KT 21/11 A3015 RMK A01 T02130111  RH  052%=      5-min Rain = 0
KCL2 092127Z 21008KT 21/11 A3015 RMK A01 T02140109  RH  051%=      5-min Rain = 0
KCL2 092128Z 21008KT 21/11 A3015 RMK A01 T02140110  RH  052%=      5-min Rain = 0
KCL2 092129Z 22009KT 22/11 A3015 RMK A01 T02150108  RH  051%=      5-min Rain = 0
KCL2 092130Z 21008KT 21/11 A3015 RMK A01 T02140107  RH  051%=      5-min Rain = 0
KCL2 092131Z 21007KT 21/11 A3015 RMK A01 T02140107  RH  050%=      5-min Rain = 0
KCL2 092132Z 22007KT 21/11 A3015 RMK A01 T02140107  RH  050%=      5-min Rain = 0
KCL2 092133Z 22007KT 22/11 A3015 RMK A01 T02160107  RH  050%=      5-min Rain = 0
KCL2 092134Z 23009KT 22/11 A3015 RMK A01 T02170107  RH  050%=      5-min Rain = 0
KCL2 092135Z 24006KT 22/11 A3015 RMK A01 T02170107  RH  050%=      5-min Rain = 0
KCL2 092136Z 24005KT 22/11 A3014 RMK A01 T02160108  RH  050%=      5-min Rain = 0
KCL2 092137Z 23005KT 22/11 A3014 RMK A01 T02150106  RH  050%=      5-min Rain = 0
KCL2 092138Z 20006KT 22/11 A3014 RMK A01 T02160107  RH  050%=      5-min Rain = 0
KCL2 092139Z 20006KT 22/11 A3014 RMK A01 T02180108  RH  050%=      5-min Rain = 0
KCL2 092140Z 21007KT 22/11 A3014 RMK A01 T02200107  RH  049%=      5-min Rain = 0
KCL2 092141Z 21006KT 22/11 A3014 RMK A01 T02200105  RH  048%=      5-min Rain = 0
KCL2 092142Z 22008KT 22/11 A3014 RMK A01 T02180106  RH  049%=      5-min Rain = 0
KCL2 092143Z 23008KT 22/11 A3014 RMK A01 T02170108  RH  050%=      5-min Rain = 0
KCL2 092144Z 23008KT 22/11 A3014 RMK A01 T02160107  RH  050%=      5-min Rain = 0
KCL2 092145Z 22006KT 21/11 A3014 RMK A01 T02140107  RH  050%=      5-min Rain = 0
KCL2 092146Z 22006KT 21/11 A3014 RMK A01 T02130108  RH  051%=      5-min Rain = 0
KCL2 092147Z 24005KT 22/11 A3014 RMK A01 T02150109  RH  051%=      5-min Rain = 0
KCL2 092148Z 21004KT 22/11 A3014 RMK A01 T02170108  RH  050%=      5-min Rain = 0
KCL2 092149Z 21006KT 22/11 A3014 RMK A01 T02180107  RH  049%=      5-min Rain = 0
KCL2 092150Z 20009KT 22/11 A3014 RMK A01 T02200106  RH  048%=      5-min Rain = 0
KCL2 092151Z 21008KT 22/11 A3014 RMK A01 T02180105  RH  048%=      5-min Rain = 0
KCL2 092152Z 20009KT 22/10 A3014 RMK A01 T02170103  RH  048%=      5-min Rain = 0
KCL2 092153Z 20008KT 22/11 A3014 RMK A01 T02150105  RH  050%=      5-min Rain = 0
KCL2 092154Z 20008KT 21/11 A3014 RMK A01 T02140106  RH  050%=      5-min Rain = 0
KCL2 092155Z 21008KT 21/11 A3014 RMK A01 T02140105  RH  050%=      5-min Rain = 0
KCL2 092156Z 22009KT 21/10 A3014 RMK A01 T02140104  RH  049%=      5-min Rain = 0
KCL2 092157Z 22009KT 22/10 A3014 RMK A01 T02150104  RH  049%=      5-min Rain = 0
KCL2 092158Z 21007KT 21/11 A3014 RMK A01 T02140105  RH  050%=      5-min Rain = 0
KCL2 092159Z 21006KT 21/11 A3014 RMK A01 T02140105  RH  050%=      5-min Rain = 0
KCL2 092200Z 23008KT 21/11 A3014 RMK A01 T02130106  RH  050%=      5-min Rain = 0
KCL2 092201Z 24009KT 21/10 A3014 RMK A01 T02140104  RH  049%=      5-min Rain = 0
KCL2 092202Z 23009KT 21/11 A3014 RMK A01 T02140106  RH  050%=      5-min Rain = 0
KCL2 092203Z 24008KT 21/11 A3014 RMK A01 T02130109  RH  051%=      5-min Rain = 0
KCL2 092204Z 24008KT 21/11 A3014 RMK A01 T02130108  RH  051%=      5-min Rain = 0
KCL2 092205Z 24007KT 21/11 A3014 RMK A01 T02130108  RH  051%=      5-min Rain = 0
KCL2 092206Z 25006KT 21/11 A3014 RMK A01 T02130108  RH  051%=      5-min Rain = 0
KCL2 092207Z 24006KT 21/11 A3014 RMK A01 T02130107  RH  051%=      5-min Rain = 0
KCL2 092208Z 23007KT 21/11 A3014 RMK A01 T02140107  RH  050%=      5-min Rain = 0
KCL2 092209Z 22007KT 21/11 A3014 RMK A01 T02140105  RH  050%=      5-min Rain = 0
KCL2 092210Z 21007KT 22/10 A3014 RMK A01 T02150103  RH  049%=      5-min Rain = 0
KCL2 092211Z 20005KT 21/10 A3014 RMK A01 T02140104  RH  050%=      5-min Rain = 0
KCL2 092212Z 23007KT 21/11 A3014 RMK A01 T02140105  RH  050%=      5-min Rain = 0
KCL2 092213Z 23008KT 22/11 A3014 RMK A01 T02150107  RH  050%=      5-min Rain = 0
KCL2 092214Z 23008KT 22/11 A3014 RMK A01 T02150107  RH  050%=      5-min Rain = 0
KCL2 092215Z 23006KT 21/11 A3014 RMK A01 T02140107  RH  050%=      5-min Rain = 0
KCL2 092216Z 22005KT 21/11 A3014 RMK A01 T02120108  RH  051%=      5-min Rain = 0
KCL2 092217Z 23006KT 21/11 A3014 RMK A01 T02120110  RH  052%=      5-min Rain = 0
KCL2 092218Z 22006KT 21/11 A3014 RMK A01 T02120108  RH  051%=      5-min Rain = 0
KCL2 092219Z 21007KT 21/11 A3014 RMK A01 T02130109  RH  051%=      5-min Rain = 0
KCL2 092220Z 22007KT 21/11 A3014 RMK A01 T02130107  RH  051%=      5-min Rain = 0
KCL2 092221Z 22008KT 21/11 A3014 RMK A01 T02130107  RH  051%=      5-min Rain = 0
KCL2 092222Z 21007KT 21/11 A3014 RMK A01 T02120107  RH  051%=      5-min Rain = 0
KCL2 092223Z 21008KT 21/11 A3014 RMK A01 T02120107  RH  051%=      5-min Rain = 0
KCL2 092224Z 22008KT 21/11 A3014 RMK A01 T02110108  RH  051%=      5-min Rain = 0
KCL2 092225Z 22007KT 21/11 A3014 RMK A01 T02110107  RH  052%=      5-min Rain = 0
KCL2 092226Z 20007KT 21/11 A3014 RMK A01 T02100107  RH  052%=      5-min Rain = 0
KCL2 092227Z 22007KT 21/11 A3013 RMK A01 T02100105  RH  051%=      5-min Rain = 0
KCL2 092228Z 21008KT 21/11 A3013 RMK A01 T02100106  RH  051%=      5-min Rain = 0
KCL2 092229Z 21008KT 21/11 A3013 RMK A01 T02090106  RH  052%=      5-min Rain = 0
KCL2 092230Z 21008KT 21/11 A3013 RMK A01 T02090106  RH  052%=      5-min Rain = 0
KCL2 092231Z 20005KT 21/11 A3013 RMK A01 T02090106  RH  052%=      5-min Rain = 0
KCL2 092232Z 21005KT 21/11 A3013 RMK A01 T02090106  RH  052%=      5-min Rain = 0
KCL2 092233Z 20005KT 21/11 A3013 RMK A01 T02090107  RH  052%=      5-min Rain = 0
KCL2 092234Z 21005KT 21/11 A3013 RMK A01 T02090107  RH  052%=      5-min Rain = 0
KCL2 092235Z 23007KT 21/11 A3013 RMK A01 T02100109  RH  052%=      5-min Rain = 0
KCL2 092236Z 23007KT 21/11 A3013 RMK A01 T02100109  RH  052%=      5-min Rain = 0
KCL2 092237Z 22006KT 21/11 A3013 RMK A01 T02100109  RH  053%=      5-min Rain = 0
KCL2 092238Z 22007KT 21/11 A3013 RMK A01 T02090109  RH  053%=      5-min Rain = 0
KCL2 092239Z 22008KT 21/11 A3013 RMK A01 T02090109  RH  053%=      5-min Rain = 0
KCL2 092240Z 21007KT 21/11 A3013 RMK A01 T02070109  RH  053%=      5-min Rain = 0
KCL2 092241Z 21007KT 21/11 A3013 RMK A01 T02060108  RH  053%=      5-min Rain = 0
KCL2 092242Z 22006KT 21/11 A3013 RMK A01 T02060107  RH  053%=      5-min Rain = 0
KCL2 092243Z 22008KT 21/11 A3013 RMK A01 T02060107  RH  053%=      5-min Rain = 0
KCL2 092244Z 22007KT 21/11 A3013 RMK A01 T02050107  RH  053%=      5-min Rain = 0
KCL2 092245Z 22008KT 21/11 A3013 RMK A01 T02060107  RH  053%=      5-min Rain = 0
KCL2 092246Z 21008KT 21/11 A3013 RMK A01 T02060108  RH  053%=      5-min Rain = 0
KCL2 092247Z 22006KT 21/11 A3013 RMK A01 T02050108  RH  054%=      5-min Rain = 0
KCL2 092248Z 22006KT 21/11 A3013 RMK A01 T02050109  RH  054%=      5-min Rain = 0
KCL2 092249Z 22005KT 21/11 A3013 RMK A01 T02050109  RH  054%=      5-min Rain = 0
KCL2 092250Z 22006KT 20/11 A3013 RMK A01 T02040109  RH  054%=      5-min Rain = 0
KCL2 092251Z 22007KT 20/11 A3013 RMK A01 T02040109  RH  054%=      5-min Rain = 0
KCL2 092252Z 21007KT 20/11 A3013 RMK A01 T02040109  RH  054%=      5-min Rain = 0
KCL2 092253Z 21008KT 20/11 A3013 RMK A01 T02040109  RH  054%=      5-min Rain = 0
KCL2 092254Z 22008KT 20/11 A3013 RMK A01 T02030108  RH  054%=      5-min Rain = 0
KCL2 092255Z 22007KT 20/11 A3013 RMK A01 T02030108  RH  054%=      5-min Rain = 0
KCL2 092256Z 23008KT 20/11 A3013 RMK A01 T02020108  RH  055%=      5-min Rain = 0
KCL2 092257Z 22007KT 20/11 A3013 RMK A01 T02020107  RH  054%=      5-min Rain = 0
KCL2 092258Z 22006KT 20/11 A3013 RMK A01 T02010107  RH  054%=      5-min Rain = 0
KCL2 092259Z 23006KT 20/11 A3013 RMK A01 T02010107  RH  055%=      5-min Rain = 0
KCL2 092300Z 22005KT 20/11 A3013 RMK A01 T02010107  RH  055%=      5-min Rain = 0
KCL2 092301Z 23006KT 20/11 A3013 RMK A01 T02000108  RH  055%=      5-min Rain = 0
KCL2 092302Z 22005KT 20/11 A3013 RMK A01 T02000110  RH  056%=      5-min Rain = 0
KCL2 092303Z 22006KT 20/11 A3013 RMK A01 T01990110  RH  057%=      5-min Rain = 0
KCL2 092304Z 21006KT 20/11 A3013 RMK A01 T01980111  RH  057%=      5-min Rain = 0
KCL2 092305Z 20005KT 20/11 A3013 RMK A01 T01970111  RH  057%=      5-min Rain = 0
KCL2 092306Z 20006KT 20/11 A3013 RMK A01 T01960112  RH  058%=      5-min Rain = 0
KCL2 092307Z 21006KT 20/11 A3013 RMK A01 T01960114  RH  059%=      5-min Rain = 0
KCL2 092308Z 20005KT 20/11 A3013 RMK A01 T01960114  RH  059%=      5-min Rain = 0
KCL2 092309Z 21006KT 20/11 A3013 RMK A01 T01960114  RH  059%=      5-min Rain = 0
KCL2 092310Z 20005KT 20/12 A3013 RMK A01 T01960115  RH  059%=      5-min Rain = 0
KCL2 092311Z 21005KT 20/12 A3013 RMK A01 T01950115  RH  060%=      5-min Rain = 0
KCL2 092312Z 21006KT 20/12 A3013 RMK A01 T01950115  RH  060%=      5-min Rain = 0
KCL2 092313Z 21006KT 19/12 A3013 RMK A01 T01940115  RH  060%=      5-min Rain = 0
KCL2 092314Z 20005KT 19/12 A3013 RMK A01 T01940115  RH  060%=      5-min Rain = 0
KCL2 092315Z 19004KT 19/12 A3013 RMK A01 T01930115  RH  061%=      5-min Rain = 0
KCL2 092316Z 19004KT 19/12 A3013 RMK A01 T01920115  RH  061%=      5-min Rain = 0
KCL2 092317Z 19004KT 19/11 A3013 RMK A01 T01910114  RH  061%=      5-min Rain = 0
KCL2 092318Z 19004KT 19/11 A3013 RMK A01 T01900114  RH  061%=      5-min Rain = 0
KCL2 092319Z 19004KT 19/11 A3013 RMK A01 T01900114  RH  061%=      5-min Rain = 0
KCL2 092320Z 19005KT 19/11 A3013 RMK A01 T01890114  RH  062%=      5-min Rain = 0
KCL2 092321Z 20005KT 19/11 A3013 RMK A01 T01890114  RH  062%=      5-min Rain = 0
KCL2 092322Z 19005KT 19/11 A3013 RMK A01 T01880113  RH  062%=      5-min Rain = 0
KCL2 092323Z 19004KT 19/11 A3013 RMK A01 T01870113  RH  062%=      5-min Rain = 0
KCL2 092324Z 19004KT 19/11 A3013 RMK A01 T01860113  RH  062%=      5-min Rain = 0
KCL2 092325Z 19004KT 19/11 A3013 RMK A01 T01860113  RH  062%=      5-min Rain = 0
KCL2 092326Z 19004KT 19/11 A3013 RMK A01 T01850113  RH  063%=      5-min Rain = 0
KCL2 092327Z 19004KT 18/11 A3013 RMK A01 T01840113  RH  063%=      5-min Rain = 0
KCL2 092328Z 19004KT 18/11 A3013 RMK A01 T01830113  RH  063%=      5-min Rain = 0
KCL2 092329Z 19004KT 18/11 A3013 RMK A01 T01820112  RH  064%=      5-min Rain = 0
KCL2 092330Z 19005KT 18/11 A3013 RMK A01 T01820113  RH  064%=      5-min Rain = 0
KCL2 092331Z 19004KT 18/11 A3013 RMK A01 T01810112  RH  064%=      5-min Rain = 0
KCL2 092332Z 20004KT 18/11 A3013 RMK A01 T01800112  RH  064%=      5-min Rain = 0
KCL2 092333Z 19004KT 18/11 A3013 RMK A01 T01790111  RH  065%=      5-min Rain = 0
KCL2 092334Z 19004KT 18/11 A3013 RMK A01 T01780112  RH  065%=      5-min Rain = 0
KCL2 092335Z 19004KT 18/11 A3013 RMK A01 T01770112  RH  065%=      5-min Rain = 0
KCL2 092336Z 19004KT 18/11 A3013 RMK A01 T01770111  RH  066%=      5-min Rain = 0
KCL2 092337Z 19004KT 18/11 A3013 RMK A01 T01760111  RH  066%=      5-min Rain = 0
KCL2 092338Z 20004KT 18/11 A3013 RMK A01 T01760111  RH  066%=      5-min Rain = 0
KCL2 092339Z 19004KT 18/11 A3013 RMK A01 T01750112  RH  066%=      5-min Rain = 0
KCL2 092340Z 20004KT 18/11 A3013 RMK A01 T01750111  RH  066%=      5-min Rain = 0
KCL2 092341Z 20004KT 18/11 A3013 RMK A01 T01750111  RH  066%=      5-min Rain = 0
KCL2 092342Z 20004KT 18/11 A3013 RMK A01 T01750111  RH  066%=      5-min Rain = 0
KCL2 092343Z 20004KT 17/11 A3013 RMK A01 T01740110  RH  066%=      5-min Rain = 0
KCL2 092344Z 20005KT 17/11 A3013 RMK A01 T01730110  RH  067%=      5-min Rain = 0
KCL2 092345Z 19005KT 17/11 A3013 RMK A01 T01720110  RH  067%=      5-min Rain = 0
KCL2 092346Z 20005KT 17/11 A3013 RMK A01 T01720110  RH  067%=      5-min Rain = 0
KCL2 092347Z 20005KT 17/11 A3013 RMK A01 T01710110  RH  067%=      5-min Rain = 0
KCL2 092348Z 19004KT 17/11 A3013 RMK A01 T01700110  RH  068%=      5-min Rain = 0
KCL2 092349Z 20004KT 17/11 A3013 RMK A01 T01700110  RH  068%=      5-min Rain = 0
KCL2 092350Z 20004KT 17/11 A3013 RMK A01 T01690110  RH  068%=      5-min Rain = 0
KCL2 092351Z 20004KT 17/11 A3013 RMK A01 T01690111  RH  068%=      5-min Rain = 0
KCL2 092352Z 20004KT 17/11 A3013 RMK A01 T01690110  RH  068%=      5-min Rain = 0
KCL2 092353Z 19004KT 17/11 A3013 RMK A01 T01690111  RH  068%=      5-min Rain = 0
KCL2 092354Z 20004KT 17/11 A3013 RMK A01 T01690111  RH  069%=      5-min Rain = 0
KCL2 092355Z 20004KT 17/11 A3013 RMK A01 T01690110  RH  068%=      5-min Rain = 0
KCL2 092356Z 20004KT 17/11 A3013 RMK A01 T01690110  RH  068%=      5-min Rain = 0
KCL2 092357Z 20004KT 17/11 A3013 RMK A01 T01680110  RH  068%=      5-min Rain = 0
KCL2 092358Z 19004KT 17/11 A3013 RMK A01 T01670109  RH  069%=      5-min Rain = 0
KCL2 092359Z 19004KT 17/11 A3013 RMK A01 T01660110  RH  069%=      5-min Rain = 0
KCL2 100000Z 19005KT 17/11 A3013 RMK A01 T01660110  RH  070%=      5-min Rain = 0
KCL2 100001Z 19004KT 17/11 A3013 RMK A01 T01660110  RH  070%=      5-min Rain = 0
KCL2 100002Z 19004KT 17/11 A3013 RMK A01 T01650110  RH  070%=      5-min Rain = 0
KCL2 100003Z 19004KT 17/11 A3013 RMK A01 T01650110  RH  070%=      5-min Rain = 0
KCL2 100004Z 19004KT 17/11 A3013 RMK A01 T01650111  RH  070%=      5-min Rain = 0
KCL2 100005Z 19004KT 17/11 A3013 RMK A01 T01650111  RH  070%=      5-min Rain = 0
KCL2 100006Z 19004KT 17/11 A3013 RMK A01 T01650111  RH  070%=      5-min Rain = 0
KCL2 100007Z 19004KT 17/11 A3013 RMK A01 T01650111  RH  070%=      5-min Rain = 0
KCL2 100008Z 18004KT 16/11 A3013 RMK A01 T01640111  RH  070%=      5-min Rain = 0
KCL2 100009Z 18005KT 16/11 A3013 RMK A01 T01640111  RH  071%=      5-min Rain = 0
KCL2 100010Z 18004KT 16/11 A3013 RMK A01 T01630111  RH  071%=      5-min Rain = 0
KCL2 100011Z 18004KT 16/11 A3013 RMK A01 T01630111  RH  071%=      5-min Rain = 0
KCL2 100012Z 18005KT 16/11 A3013 RMK A01 T01630111  RH  071%=      5-min Rain = 0
KCL2 100013Z 18005KT 16/11 A3013 RMK A01 T01630111  RH  071%=      5-min Rain = 0
KCL2 100014Z 18005KT 16/11 A3013 RMK A01 T01620110  RH  071%=      5-min Rain = 0
KCL2 100015Z 18005KT 16/11 A3013 RMK A01 T01620110  RH  071%=      5-min Rain = 0
KCL2 100016Z 18005KT 16/11 A3013 RMK A01 T01610109  RH  071%=      5-min Rain = 0
KCL2 100017Z 18005KT 16/11 A3013 RMK A01 T01600109  RH  072%=      5-min Rain = 0
KCL2 100018Z 18005KT 16/11 A3013 RMK A01 T01580109  RH  072%=      5-min Rain = 0
KCL2 100019Z 18005KT 16/11 A3013 RMK A01 T01570108  RH  073%=      5-min Rain = 0
KCL2 100020Z 18005KT 16/11 A3013 RMK A01 T01560108  RH  073%=      5-min Rain = 0
KCL2 100021Z 18005KT 16/11 A3013 RMK A01 T01560109  RH  073%=      5-min Rain = 0
KCL2 100022Z 18005KT 16/11 A3013 RMK A01 T01550108  RH  073%=      5-min Rain = 0
KCL2 100023Z 18005KT 16/11 A3013 RMK A01 T01550108  RH  074%=      5-min Rain = 0
KCL2 100024Z 18005KT 15/11 A3013 RMK A01 T01540108  RH  074%=      5-min Rain = 0
KCL2 100025Z 18005KT 15/11 A3013 RMK A01 T01540109  RH  074%=      5-min Rain = 0
KCL2 100026Z 18005KT 15/11 A3013 RMK A01 T01540108  RH  074%=      5-min Rain = 0
KCL2 100027Z 18005KT 15/11 A3013 RMK A01 T01540108  RH  074%=      5-min Rain = 0
KCL2 100028Z 18005KT 15/11 A3013 RMK A01 T01530108  RH  074%=      5-min Rain = 0
KCL2 100029Z 18005KT 15/11 A3013 RMK A01 T01520108  RH  075%=      5-min Rain = 0
KCL2 100030Z 18005KT 15/11 A3013 RMK A01 T01520108  RH  075%=      5-min Rain = 0
KCL2 100031Z 18005KT 15/11 A3013 RMK A01 T01520108  RH  075%=      5-min Rain = 0
KCL2 100032Z 18006KT 15/11 A3013 RMK A01 T01510108  RH  075%=      5-min Rain = 0
KCL2 100033Z 19005KT 15/11 A3013 RMK A01 T01510107  RH  075%=      5-min Rain = 0
KCL2 100034Z 19005KT 15/11 A3013 RMK A01 T01500107  RH  075%=      5-min Rain = 0
KCL2 100035Z 19006KT 15/11 A3013 RMK A01 T01490107  RH  076%=      5-min Rain = 0
KCL2 100036Z 19006KT 15/11 A3013 RMK A01 T01490106  RH  075%=      5-min Rain = 0
KCL2 100037Z 19006KT 15/11 A3013 RMK A01 T01480106  RH  076%=      5-min Rain = 0
KCL2 100038Z 19006KT 15/11 A3013 RMK A01 T01470106  RH  076%=      5-min Rain = 0
KCL2 100039Z 19006KT 15/11 A3013 RMK A01 T01460106  RH  077%=      5-min Rain = 0
KCL2 100040Z 19006KT 15/11 A3013 RMK A01 T01460106  RH  077%=      5-min Rain = 0
KCL2 100041Z 19006KT 15/11 A3013 RMK A01 T01450105  RH  077%=      5-min Rain = 0
KCL2 100042Z 19006KT 15/11 A3013 RMK A01 T01450105  RH  077%=      5-min Rain = 0
KCL2 100043Z 19006KT 15/11 A3013 RMK A01 T01450105  RH  077%=      5-min Rain = 0
KCL2 100044Z 19006KT 15/11 A3013 RMK A01 T01450105  RH  077%=      5-min Rain = 0
KCL2 100045Z 19006KT 15/11 A3013 RMK A01 T01450105  RH  077%=      5-min Rain = 0
KCL2 100046Z 19006KT 14/10 A3013 RMK A01 T01440104  RH  077%=      5-min Rain = 0
KCL2 100047Z 19006KT 14/10 A3013 RMK A01 T01440104  RH  077%=      5-min Rain = 0
KCL2 100048Z 19006KT 14/11 A3013 RMK A01 T01440105  RH  077%=      5-min Rain = 0
KCL2 100049Z 18006KT 14/10 A3013 RMK A01 T01440104  RH  077%=      5-min Rain = 0
KCL2 100050Z 19006KT 14/10 A3013 RMK A01 T01440104  RH  077%=      5-min Rain = 0
KCL2 100051Z 19006KT 14/10 A3013 RMK A01 T01440104  RH  077%=      5-min Rain = 0
KCL2 100052Z 19006KT 14/10 A3013 RMK A01 T01440104  RH  077%=      5-min Rain = 0
KCL2 100053Z 18006KT 14/10 A3013 RMK A01 T01440104  RH  077%=      5-min Rain = 0
KCL2 100054Z 19006KT 14/10 A3013 RMK A01 T01440104  RH  077%=      5-min Rain = 0
KCL2 100055Z 19006KT 15/11 A3013 RMK A01 T01460106  RH  077%=      5-min Rain = 0
KCL2 100056Z 19006KT 15/11 A3013 RMK A01 T01470106  RH  076%=      5-min Rain = 0
KCL2 100057Z 19006KT 15/11 A3013 RMK A01 T01470105  RH  076%=      5-min Rain = 0
KCL2 100058Z 19006KT 15/10 A3013 RMK A01 T01460104  RH  076%=      5-min Rain = 0
KCL2 100059Z 19006KT 15/10 A3013 RMK A01 T01450104  RH  076%=      5-min Rain = 0
KCL2 100100Z 19007KT 15/10 A3013 RMK A01 T01450104  RH  077%=      5-min Rain = 0
KCL2 100101Z 19006KT 15/10 A3013 RMK A01 T01450104  RH  077%=      5-min Rain = 0
KCL2 100102Z 19007KT 15/10 A3013 RMK A01 T01450104  RH  077%=      5-min Rain = 0
KCL2 100103Z 19006KT 14/10 A3013 RMK A01 T01440104  RH  077%=      5-min Rain = 0
KCL2 100104Z 19006KT 14/10 A3013 RMK A01 T01440104  RH  077%=      5-min Rain = 0
KCL2 100105Z 19006KT 14/10 A3013 RMK A01 T01440104  RH  077%=      5-min Rain = 0
KCL2 100106Z 19007KT 14/10 A3013 RMK A01 T01440104  RH  077%=      5-min Rain = 0
KCL2 100107Z 19007KT 14/11 A3013 RMK A01 T01440105  RH  077%=      5-min Rain = 0
KCL2 100108Z 19007KT 14/11 A3013 RMK A01 T01430105  RH  077%=      5-min Rain = 0
KCL2 100109Z 19007KT 14/11 A3013 RMK A01 T01430105  RH  078%=      5-min Rain = 0
KCL2 100110Z 19007KT 14/11 A3013 RMK A01 T01430105  RH  078%=      5-min Rain = 0
KCL2 100111Z 19007KT 14/11 A3013 RMK A01 T01430105  RH  078%=      5-min Rain = 0
KCL2 100112Z 19007KT 14/11 A3013 RMK A01 T01440106  RH  078%=      5-min Rain = 0
KCL2 100113Z 19007KT 15/11 A3013 RMK A01 T01450106  RH  078%=      5-min Rain = 0
KCL2 100114Z 19007KT 15/11 A3014 RMK A01 T01450106  RH  077%=      5-min Rain = 0
KCL2 100115Z 19007KT 15/11 A3014 RMK A01 T01450106  RH  077%=      5-min Rain = 0
KCL2 100116Z 19007KT 15/11 A3014 RMK A01 T01450106  RH  078%=      5-min Rain = 0
KCL2 100117Z 19006KT 15/11 A3014 RMK A01 T01450106  RH  078%=      5-min Rain = 0
KCL2 100118Z 19007KT 15/11 A3014 RMK A01 T01450106  RH  077%=      5-min Rain = 0
KCL2 100119Z 19007KT 15/11 A3014 RMK A01 T01450106  RH  077%=      5-min Rain = 0
KCL2 100120Z 19007KT 15/11 A3014 RMK A01 T01450106  RH  077%=      5-min Rain = 0
KCL2 100121Z 19006KT 15/11 A3014 RMK A01 T01460107  RH  077%=      5-min Rain = 0
KCL2 100122Z 19006KT 15/11 A3014 RMK A01 T01460106  RH  077%=      5-min Rain = 0
KCL2 100123Z 19006KT 15/11 A3014 RMK A01 T01460106  RH  077%=      5-min Rain = 0
KCL2 100124Z 19005KT 15/11 A3014 RMK A01 T01450106  RH  077%=      5-min Rain = 0
KCL2 100125Z 19006KT 15/11 A3014 RMK A01 T01450106  RH  077%=      5-min Rain = 0
KCL2 100126Z 20006KT 15/11 A3014 RMK A01 T01450106  RH  077%=      5-min Rain = 0
KCL2 100127Z 19005KT 15/11 A3014 RMK A01 T01450106  RH  077%=      5-min Rain = 0
KCL2 100128Z 19005KT 15/11 A3014 RMK A01 T01450106  RH  077%=      5-min Rain = 0
KCL2 100129Z 19005KT 15/11 A3014 RMK A01 T01460107  RH  077%=      5-min Rain = 0
KCL2 100130Z 19005KT 15/11 A3014 RMK A01 T01460106  RH  077%=      5-min Rain = 0
KCL2 100131Z 19005KT 15/11 A3014 RMK A01 T01460106  RH  077%=      5-min Rain = 0
KCL2 100132Z 19005KT 15/11 A3014 RMK A01 T01460106  RH  077%=      5-min Rain = 0
KCL2 100133Z 19005KT 15/11 A3014 RMK A01 T01450105  RH  077%=      5-min Rain = 0
KCL2 100134Z 18005KT 14/11 A3014 RMK A01 T01440105  RH  077%=      5-min Rain = 0
KCL2 100135Z 19006KT 14/11 A3014 RMK A01 T01440106  RH  078%=      5-min Rain = 0
KCL2 100136Z 18006KT 14/11 A3014 RMK A01 T01440105  RH  077%=      5-min Rain = 0
KCL2 100137Z 19005KT 14/11 A3014 RMK A01 T01440105  RH  078%=      5-min Rain = 0
KCL2 100138Z 19006KT 14/11 A3014 RMK A01 T01440105  RH  078%=      5-min Rain = 0
KCL2 100139Z 19006KT 14/11 A3014 RMK A01 T01430105  RH  078%=      5-min Rain = 0
KCL2 100140Z 18006KT 14/11 A3014 RMK A01 T01430106  RH  078%=      5-min Rain = 0
KCL2 100141Z 18006KT 14/11 A3014 RMK A01 T01430105  RH  078%=      5-min Rain = 0
KCL2 100142Z 18006KT 14/11 A3014 RMK A01 T01430105  RH  078%=      5-min Rain = 0
KCL2 100143Z 18006KT 14/11 A3014 RMK A01 T01430105  RH  078%=      5-min Rain = 0
KCL2 100144Z 18006KT 14/11 A3014 RMK A01 T01430106  RH  078%=      5-min Rain = 0
KCL2 100145Z 18005KT 14/11 A3014 RMK A01 T01430106  RH  078%=      5-min Rain = 0
KCL2 100146Z 18005KT 14/11 A3014 RMK A01 T01430105  RH  078%=      5-min Rain = 0
KCL2 100147Z 18006KT 14/11 A3014 RMK A01 T01420106  RH  078%=      5-min Rain = 0
KCL2 100148Z 19006KT 14/11 A3014 RMK A01 T01430106  RH  078%=      5-min Rain = 0
KCL2 100149Z 19006KT 14/11 A3014 RMK A01 T01430105  RH  078%=      5-min Rain = 0
KCL2 100150Z 19006KT 14/11 A3014 RMK A01 T01430105  RH  078%=      5-min Rain = 0
KCL2 100151Z 19005KT 14/11 A3014 RMK A01 T01440105  RH  078%=      5-min Rain = 0
KCL2 100152Z 19005KT 14/11 A3014 RMK A01 T01440105  RH  077%=      5-min Rain = 0
KCL2 100153Z 18005KT 14/11 A3014 RMK A01 T01430105  RH  078%=      5-min Rain = 0
KCL2 100154Z 19006KT 14/10 A3014 RMK A01 T01420104  RH  078%=      5-min Rain = 0
KCL2 100155Z 19006KT 14/11 A3014 RMK A01 T01420105  RH  078%=      5-min Rain = 0
KCL2 100156Z 19006KT 14/10 A3014 RMK A01 T01420104  RH  078%=      5-min Rain = 0
KCL2 100157Z 19006KT 14/11 A3014 RMK A01 T01420105  RH  078%=      5-min Rain = 0
KCL2 100158Z 19007KT 14/11 A3014 RMK A01 T01410105  RH  078%=      5-min Rain = 0
KCL2 100159Z 19006KT 14/10 A3014 RMK A01 T01410104  RH  078%=      5-min Rain = 0
KCL2 100200Z 19007KT 14/11 A3014 RMK A01 T01410105  RH  079%=      5-min Rain = 0
KCL2 100201Z 19007KT 14/11 A3014 RMK A01 T01410105  RH  079%=      5-min Rain = 0
KCL2 100202Z 19006KT 14/11 A3014 RMK A01 T01410105  RH  079%=      5-min Rain = 0
KCL2 100203Z 19006KT 14/11 A3014 RMK A01 T01410105  RH  079%=      5-min Rain = 0
KCL2 100204Z 19006KT 14/11 A3014 RMK A01 T01410105  RH  079%=      5-min Rain = 0
KCL2 100205Z 18006KT 14/11 A3014 RMK A01 T01410105  RH  079%=      5-min Rain = 0
KCL2 100206Z 19006KT 14/11 A3014 RMK A01 T01410105  RH  079%=      5-min Rain = 0
KCL2 100207Z 18007KT 14/10 A3014 RMK A01 T01400104  RH  079%=      5-min Rain = 0
KCL2 100208Z 19006KT 14/11 A3014 RMK A01 T01400105  RH  079%=      5-min Rain = 0
KCL2 100209Z 19006KT 14/11 A3014 RMK A01 T01400105  RH  079%=      5-min Rain = 0
KCL2 100210Z 19006KT 14/11 A3014 RMK A01 T01400105  RH  079%=      5-min Rain = 0
KCL2 100211Z 19007KT 14/11 A3014 RMK A01 T01400105  RH  079%=      5-min Rain = 0
KCL2 100212Z 20006KT 14/11 A3014 RMK A01 T01400105  RH  079%=      5-min Rain = 0
KCL2 100213Z 19006KT 14/11 A3014 RMK A01 T01410105  RH  079%=      5-min Rain = 0
KCL2 100214Z 19007KT 14/11 A3014 RMK A01 T01420106  RH  079%=      5-min Rain = 0
KCL2 100215Z 19006KT 14/11 A3014 RMK A01 T01430106  RH  079%=      5-min Rain = 0
KCL2 100216Z 19007KT 14/11 A3014 RMK A01 T01420105  RH  078%=      5-min Rain = 0
KCL2 100217Z 19007KT 14/11 A3013 RMK A01 T01420106  RH  079%=      5-min Rain = 0
KCL2 100218Z 19007KT 14/11 A3013 RMK A01 T01410106  RH  079%=      5-min Rain = 0
KCL2 100219Z 19008KT 14/11 A3013 RMK A01 T01420106  RH  079%=      5-min Rain = 0
KCL2 100220Z 19008KT 14/11 A3013 RMK A01 T01430107  RH  079%=      5-min Rain = 0
KCL2 100221Z 19008KT 14/11 A3013 RMK A01 T01430107  RH  079%=      5-min Rain = 0
KCL2 100222Z 19007KT 14/11 A3013 RMK A01 T01430107  RH  079%=      5-min Rain = 0
KCL2 100223Z 19007KT 14/11 A3013 RMK A01 T01440107  RH  078%=      5-min Rain = 0
KCL2 100224Z 19007KT 14/11 A3013 RMK A01 T01440107  RH  078%=      5-min Rain = 0
KCL2 100225Z 19006KT 15/11 A3013 RMK A01 T01450107  RH  078%=      5-min Rain = 0
KCL2 100226Z 19007KT 14/11 A3013 RMK A01 T01440106  RH  078%=      5-min Rain = 0
KCL2 100227Z 19007KT 14/11 A3013 RMK A01 T01440107  RH  078%=      5-min Rain = 0
KCL2 100228Z 19006KT 14/11 A3013 RMK A01 T01440107  RH  078%=      5-min Rain = 0
KCL2 100229Z 19007KT 14/11 A3013 RMK A01 T01440107  RH  078%=      5-min Rain = 0
KCL2 100230Z 19007KT 14/11 A3013 RMK A01 T01440106  RH  078%=      5-min Rain = 0
KCL2 100231Z 19007KT 14/11 A3013 RMK A01 T01430106  RH  078%=      5-min Rain = 0
KCL2 100232Z 19007KT 14/11 A3013 RMK A01 T01430106  RH  078%=      5-min Rain = 0
KCL2 100233Z 19007KT 14/11 A3013 RMK A01 T01430107  RH  079%=      5-min Rain = 0
KCL2 100234Z 19007KT 14/11 A3013 RMK A01 T01430107  RH  079%=      5-min Rain = 0
KCL2 100235Z 19007KT 14/11 A3013 RMK A01 T01430107  RH  079%=      5-min Rain = 0
KCL2 100236Z 19008KT 14/11 A3013 RMK A01 T01430107  RH  079%=      5-min Rain = 0
KCL2 100237Z 19007KT 14/11 A3013 RMK A01 T01440107  RH  079%=      5-min Rain = 0
KCL2 100238Z 19007KT 14/11 A3014 RMK A01 T01440107  RH  078%=      5-min Rain = 0
KCL2 100239Z 19007KT 14/11 A3014 RMK A01 T01440107  RH  078%=      5-min Rain = 0
KCL2 100240Z 19007KT 14/11 A3014 RMK A01 T01440107  RH  078%=      5-min Rain = 0
KCL2 100241Z 19007KT 14/11 A3014 RMK A01 T01440107  RH  078%=      5-min Rain = 0
KCL2 100242Z 19007KT 14/11 A3014 RMK A01 T01440107  RH  078%=      5-min Rain = 0
KCL2 100243Z 19007KT 14/11 A3014 RMK A01 T01440107  RH  078%=      5-min Rain = 0
KCL2 100244Z 19008KT 14/11 A3014 RMK A01 T01440107  RH  079%=      5-min Rain = 0
KCL2 100245Z 19007KT 14/11 A3014 RMK A01 T01440107  RH  079%=      5-min Rain = 0
KCL2 100246Z 19007KT 14/11 A3014 RMK A01 T01440107  RH  078%=      5-min Rain = 0
KCL2 100247Z 19006KT 14/11 A3014 RMK A01 T01440107  RH  079%=      5-min Rain = 0
KCL2 100248Z 19007KT 14/11 A3014 RMK A01 T01440107  RH  078%=      5-min Rain = 0
KCL2 100249Z 19007KT 14/11 A3014 RMK A01 T01440107  RH  079%=      5-min Rain = 0
KCL2 100250Z 19006KT 14/11 A3014 RMK A01 T01440107  RH  079%=      5-min Rain = 0
KCL2 100251Z 19006KT 14/11 A3014 RMK A01 T01440108  RH  079%=      5-min Rain = 0
KCL2 100252Z 19007KT 14/11 A3014 RMK A01 T01430107  RH  079%=      5-min Rain = 0
KCL2 100253Z 19008KT 14/11 A3014 RMK A01 T01430108  RH  079%=      5-min Rain = 0
KCL2 100254Z 19007KT 14/11 A3014 RMK A01 T01430108  RH  079%=      5-min Rain = 0
KCL2 100255Z 19007KT 14/11 A3014 RMK A01 T01430108  RH  079%=      5-min Rain = 0
KCL2 100256Z 19007KT 14/11 A3014 RMK A01 T01440108  RH  079%=      5-min Rain = 0
KCL2 100257Z 19007KT 14/11 A3014 RMK A01 T01440108  RH  079%=      5-min Rain = 0
KCL2 100258Z 19007KT 14/11 A3014 RMK A01 T01440108  RH  079%=      5-min Rain = 0
KCL2 100259Z 19007KT 14/11 A3014 RMK A01 T01430108  RH  079%=      5-min Rain = 0
KCL2 100300Z 19006KT 14/11 A3014 RMK A01 T01430108  RH  079%=      5-min Rain = 0
KCL2 100301Z 19007KT 14/11 A3014 RMK A01 T01430108  RH  079%=      5-min Rain = 0
KCL2 100302Z 19007KT 14/11 A3014 RMK A01 T01430108  RH  080%=      5-min Rain = 0
KCL2 100303Z 19007KT 14/11 A3014 RMK A01 T01420108  RH  080%=      5-min Rain = 0
KCL2 100304Z 19007KT 14/11 A3014 RMK A01 T01420108  RH  080%=      5-min Rain = 0
KCL2 100305Z 19006KT 14/11 A3014 RMK A01 T01420108  RH  080%=      5-min Rain = 0
KCL2 100306Z 19007KT 14/11 A3014 RMK A01 T01420107  RH  080%=      5-min Rain = 0
KCL2 100307Z 19006KT 14/11 A3014 RMK A01 T01420108  RH  080%=      5-min Rain = 0
KCL2 100308Z 19007KT 14/11 A3014 RMK A01 T01420107  RH  080%=      5-min Rain = 0
KCL2 100309Z 19006KT 14/11 A3014 RMK A01 T01420107  RH  080%=      5-min Rain = 0
KCL2 100310Z 20006KT 14/11 A3014 RMK A01 T01420107  RH  080%=      5-min Rain = 0
KCL2 100311Z 19007KT 14/11 A3014 RMK A01 T01410107  RH  080%=      5-min Rain = 0
KCL2 100312Z 20007KT 14/11 A3014 RMK A01 T01410108  RH  080%=      5-min Rain = 0
KCL2 100313Z 20006KT 14/11 A3014 RMK A01 T01410107  RH  080%=      5-min Rain = 0
KCL2 100314Z 20007KT 14/11 A3014 RMK A01 T01400107  RH  080%=      5-min Rain = 0
KCL2 100315Z 19006KT 14/11 A3014 RMK A01 T01400107  RH  081%=      5-min Rain = 0
KCL2 100316Z 20007KT 14/11 A3014 RMK A01 T01400108  RH  081%=      5-min Rain = 0
KCL2 100317Z 20006KT 14/11 A3014 RMK A01 T01400108  RH  081%=      5-min Rain = 0
KCL2 100318Z 20007KT 14/11 A3014 RMK A01 T01400108  RH  081%=      5-min Rain = 0
KCL2 100319Z 19007KT 14/11 A3014 RMK A01 T01400108  RH  081%=      5-min Rain = 0
KCL2 100320Z 20007KT 14/11 A3014 RMK A01 T01410108  RH  081%=      5-min Rain = 0
KCL2 100321Z 20007KT 14/11 A3014 RMK A01 T01410108  RH  081%=      5-min Rain = 0
KCL2 100322Z 20007KT 14/11 A3014 RMK A01 T01400108  RH  081%=      5-min Rain = 0
KCL2 100323Z 19007KT 14/11 A3014 RMK A01 T01400108  RH  081%=      5-min Rain = 0
KCL2 100324Z 20007KT 14/11 A3014 RMK A01 T01400108  RH  081%=      5-min Rain = 0
KCL2 100325Z 20006KT 14/11 A3014 RMK A01 T01400108  RH  081%=      5-min Rain = 0
KCL2 100326Z 19006KT 14/11 A3014 RMK A01 T01400108  RH  081%=      5-min Rain = 0
KCL2 100327Z 20006KT 14/11 A3014 RMK A01 T01390108  RH  081%=      5-min Rain = 0
KCL2 100328Z 19006KT 14/11 A3014 RMK A01 T01400108  RH  081%=      5-min Rain = 0
KCL2 100329Z 19006KT 14/11 A3014 RMK A01 T01390108  RH  081%=      5-min Rain = 0
KCL2 100330Z 19006KT 14/11 A3014 RMK A01 T01390108  RH  082%=      5-min Rain = 0
KCL2 100331Z 19006KT 14/11 A3014 RMK A01 T01390108  RH  082%=      5-min Rain = 0
KCL2 100332Z 19006KT 14/11 A3014 RMK A01 T01390108  RH  082%=      5-min Rain = 0
KCL2 100333Z 19006KT 14/11 A3014 RMK A01 T01390108  RH  082%=      5-min Rain = 0
KCL2 100334Z 19006KT 14/11 A3014 RMK A01 T01390108  RH  082%=      5-min Rain = 0
KCL2 100335Z 19006KT 14/11 A3014 RMK A01 T01390108  RH  082%=      5-min Rain = 0
KCL2 100336Z 19006KT 14/11 A3014 RMK A01 T01380108  RH  082%=      5-min Rain = 0
KCL2 100337Z 19006KT 14/11 A3014 RMK A01 T01380109  RH  082%=      5-min Rain = 0
KCL2 100338Z 19006KT 14/11 A3014 RMK A01 T01390109  RH  082%=      5-min Rain = 0
KCL2 100339Z 18006KT 14/11 A3014 RMK A01 T01390109  RH  082%=      5-min Rain = 0
KCL2 100340Z 18006KT 14/11 A3014 RMK A01 T01390108  RH  082%=      5-min Rain = 0
KCL2 100341Z 18005KT 14/11 A3014 RMK A01 T01390109  RH  082%=      5-min Rain = 0
KCL2 100342Z 18006KT 14/11 A3014 RMK A01 T01390109  RH  082%=      5-min Rain = 0
KCL2 100343Z 18006KT 14/11 A3014 RMK A01 T01390109  RH  082%=      5-min Rain = 0
KCL2 100344Z 18005KT 14/11 A3014 RMK A01 T01390109  RH  082%=      5-min Rain = 0
KCL2 100345Z 18006KT 14/11 A3014 RMK A01 T01390109  RH  082%=      5-min Rain = 0
KCL2 100346Z 18006KT 14/11 A3014 RMK A01 T01400110  RH  082%=      5-min Rain = 0
KCL2 100347Z 18006KT 14/11 A3014 RMK A01 T01400110  RH  082%=      5-min Rain = 0
KCL2 100348Z 18006KT 14/11 A3013 RMK A01 T01410110  RH  082%=      5-min Rain = 0
KCL2 100349Z 18006KT 14/11 A3013 RMK A01 T01400110  RH  082%=      5-min Rain = 0
KCL2 100350Z 18006KT 14/11 A3013 RMK A01 T01400110  RH  082%=      5-min Rain = 0
KCL2 100351Z 18006KT 14/11 A3013 RMK A01 T01410110  RH  082%=      5-min Rain = 0
KCL2 100352Z 19006KT 14/11 A3013 RMK A01 T01400109  RH  082%=      5-min Rain = 0
KCL2 100353Z 19006KT 14/11 A3013 RMK A01 T01400109  RH  082%=      5-min Rain = 0
KCL2 100354Z 19006KT 14/11 A3013 RMK A01 T01390109  RH  082%=      5-min Rain = 0
KCL2 100355Z 19006KT 14/11 A3013 RMK A01 T01390110  RH  082%=      5-min Rain = 0
KCL2 100356Z 19006KT 14/11 A3013 RMK A01 T01390110  RH  083%=      5-min Rain = 0
KCL2 100357Z 19006KT 14/11 A3013 RMK A01 T01390110  RH  082%=      5-min Rain = 0
KCL2 100358Z 19007KT 14/11 A3013 RMK A01 T01390109  RH  082%=      5-min Rain = 0
KCL2 100359Z 19007KT 14/11 A3013 RMK A01 T01380109  RH  082%=      5-min Rain = 0
KCL2 100400Z 19007KT 14/11 A3013 RMK A01 T01380109  RH  083%=      5-min Rain = 0
KCL2 100401Z 19007KT 14/11 A3013 RMK A01 T01380110  RH  083%=      5-min Rain = 0
KCL2 100402Z 19007KT 14/11 A3013 RMK A01 T01380109  RH  083%=      5-min Rain = 0
KCL2 100403Z 19007KT 14/11 A3013 RMK A01 T01380110  RH  083%=      5-min Rain = 0
KCL2 100404Z 19007KT 14/11 A3013 RMK A01 T01380110  RH  083%=      5-min Rain = 0
KCL2 100405Z 19007KT 14/11 A3013 RMK A01 T01380110  RH  083%=      5-min Rain = 0
KCL2 100406Z 19007KT 14/11 A3013 RMK A01 T01380110  RH  083%=      5-min Rain = 0
KCL2 100407Z 19007KT 14/11 A3014 RMK A01 T01380110  RH  083%=      5-min Rain = 0
KCL2 100408Z 19007KT 14/11 A3014 RMK A01 T01380110  RH  083%=      5-min Rain = 0
KCL2 100409Z 19007KT 14/11 A3013 RMK A01 T01380110  RH  083%=      5-min Rain = 0
KCL2 100410Z 19007KT 14/11 A3013 RMK A01 T01380110  RH  083%=      5-min Rain = 0
KCL2 100411Z 19007KT 14/11 A3013 RMK A01 T01380110  RH  083%=      5-min Rain = 0
KCL2 100412Z 19007KT 14/11 A3013 RMK A01 T01380110  RH  083%=      5-min Rain = 0
KCL2 100413Z 19007KT 14/11 A3013 RMK A01 T01380110  RH  083%=      5-min Rain = 0
KCL2 100414Z 19007KT 14/11 A3013 RMK A01 T01380110  RH  083%=      5-min Rain = 0
KCL2 100415Z 19007KT 14/11 A3013 RMK A01 T01370110  RH  083%=      5-min Rain = 0
KCL2 100416Z 19007KT 14/11 A3013 RMK A01 T01370110  RH  083%=      5-min Rain = 0
KCL2 100417Z 19007KT 14/11 A3013 RMK A01 T01360109  RH  084%=      5-min Rain = 0
KCL2 100418Z 19007KT 14/11 A3013 RMK A01 T01360109  RH  084%=      5-min Rain = 0
KCL2 100419Z 19007KT 14/11 A3013 RMK A01 T01360109  RH  084%=      5-min Rain = 0
KCL2 100420Z 19007KT 14/11 A3013 RMK A01 T01360110  RH  084%=      5-min Rain = 0
KCL2 100421Z 19007KT 14/11 A3013 RMK A01 T01360109  RH  084%=      5-min Rain = 0
KCL2 100422Z 19007KT 14/11 A3013 RMK A01 T01350110  RH  084%=      5-min Rain = 0
KCL2 100423Z 19007KT 14/11 A3013 RMK A01 T01350110  RH  084%=      5-min Rain = 0
KCL2 100424Z 19008KT 14/11 A3013 RMK A01 T01360110  RH  084%=      5-min Rain = 0
KCL2 100425Z 19007KT 14/11 A3013 RMK A01 T01370111  RH  084%=      5-min Rain = 0
KCL2 100426Z 19007KT 14/11 A3013 RMK A01 T01370110  RH  084%=      5-min Rain = 0
KCL2 100427Z 19007KT 14/11 A3013 RMK A01 T01380110  RH  084%=      5-min Rain = 0
KCL2 100428Z 19007KT 14/11 A3013 RMK A01 T01380110  RH  083%=      5-min Rain = 0
KCL2 100429Z 19007KT 14/11 A3013 RMK A01 T01380110  RH  084%=      5-min Rain = 0
KCL2 100430Z 19007KT 14/11 A3013 RMK A01 T01380111  RH  084%=      5-min Rain = 0
KCL2 100431Z 19007KT 14/11 A3013 RMK A01 T01370110  RH  083%=      5-min Rain = 0
KCL2 100432Z 19007KT 14/11 A3013 RMK A01 T01380111  RH  084%=      5-min Rain = 0
KCL2 100433Z 19007KT 14/11 A3013 RMK A01 T01380110  RH  083%=      5-min Rain = 0
KCL2 100434Z 19007KT 14/11 A3013 RMK A01 T01380110  RH  083%=      5-min Rain = 0
KCL2 100435Z 19006KT 14/11 A3013 RMK A01 T01380111  RH  083%=      5-min Rain = 0
KCL2 100436Z 18006KT 14/11 A3013 RMK A01 T01380110  RH  083%=      5-min Rain = 0
KCL2 100437Z 18006KT 14/11 A3013 RMK A01 T01380110  RH  083%=      5-min Rain = 0
KCL2 100438Z 18006KT 14/11 A3013 RMK A01 T01370110  RH  084%=      5-min Rain = 0
KCL2 100439Z 18006KT 14/11 A3013 RMK A01 T01370110  RH  084%=      5-min Rain = 0
KCL2 100440Z 18006KT 14/11 A3013 RMK A01 T01370110  RH  084%=      5-min Rain = 0
KCL2 100441Z 18006KT 14/11 A3013 RMK A01 T01370110  RH  084%=      5-min Rain = 0
KCL2 100442Z 18006KT 14/11 A3013 RMK A01 T01370110  RH  084%=      5-min Rain = 0
KCL2 100443Z 18006KT 14/11 A3013 RMK A01 T01370110  RH  084%=      5-min Rain = 0
KCL2 100444Z 18007KT 14/11 A3013 RMK A01 T01360110  RH  084%=      5-min Rain = 0
KCL2 100445Z 18006KT 14/11 A3013 RMK A01 T01360109  RH  084%=      5-min Rain = 0
KCL2 100446Z 18007KT 14/11 A3013 RMK A01 T01350109  RH  084%=      5-min Rain = 0
KCL2 100447Z 18007KT 14/11 A3013 RMK A01 T01350109  RH  084%=      5-min Rain = 0
KCL2 100448Z 17007KT 13/11 A3013 RMK A01 T01340109  RH  085%=      5-min Rain = 0
KCL2 100449Z 17008KT 13/11 A3013 RMK A01 T01340109  RH  085%=      5-min Rain = 0
KCL2 100450Z 18008KT 13/11 A3013 RMK A01 T01340109  RH  085%=      5-min Rain = 0
KCL2 100451Z 19007KT 14/11 A3013 RMK A01 T01350109  RH  085%=      5-min Rain = 0
KCL2 100452Z 18007KT 14/11 A3013 RMK A01 T01350110  RH  084%=      5-min Rain = 0
KCL2 100453Z 18007KT 14/11 A3013 RMK A01 T01360109  RH  084%=      5-min Rain = 0
KCL2 100454Z 17007KT 14/11 A3013 RMK A01 T01360109  RH  084%=      5-min Rain = 0
KCL2 100455Z 18007KT 13/11 A3013 RMK A01 T01340108  RH  084%=      5-min Rain = 0
KCL2 100456Z 18007KT 13/11 A3013 RMK A01 T01330108  RH  085%=      5-min Rain = 0
KCL2 100457Z 17006KT 13/11 A3013 RMK A01 T01320108  RH  085%=      5-min Rain = 0
KCL2 100458Z 16006KT 13/11 A3013 RMK A01 T01310107  RH  085%=      5-min Rain = 0
KCL2 100459Z 17005KT 13/11 A3013 RMK A01 T01300107  RH  086%=      5-min Rain = 0
KCL2 100500Z 17006KT 13/11 A3013 RMK A01 T01300107  RH  086%=      5-min Rain = 0
KCL2 100501Z 17006KT 13/11 A3013 RMK A01 T01300108  RH  087%=      5-min Rain = 0
KCL2 100502Z 16006KT 13/11 A3013 RMK A01 T01290107  RH  087%=      5-min Rain = 0
KCL2 100503Z 16006KT 13/11 A3013 RMK A01 T01280107  RH  087%=      5-min Rain = 0
KCL2 100504Z 17006KT 13/11 A3012 RMK A01 T01280107  RH  087%=      5-min Rain = 0
KCL2 100505Z 17006KT 13/11 A3013 RMK A01 T01270106  RH  087%=      5-min Rain = 0
KCL2 100506Z 16006KT 13/11 A3013 RMK A01 T01270106  RH  087%=      5-min Rain = 0
KCL2 100507Z 17006KT 13/11 A3012 RMK A01 T01260106  RH  087%=      5-min Rain = 0
KCL2 100508Z 17007KT 13/11 A3012 RMK A01 T01260106  RH  088%=      5-min Rain = 0
KCL2 100509Z 16007KT 13/11 A3013 RMK A01 T01260107  RH  088%=      5-min Rain = 0
KCL2 100510Z 16006KT 13/11 A3013 RMK A01 T01260106  RH  088%=      5-min Rain = 0
KCL2 100511Z 17006KT 13/11 A3013 RMK A01 T01250105  RH  088%=      5-min Rain = 0
KCL2 100512Z 17007KT 13/11 A3013 RMK A01 T01250105  RH  088%=      5-min Rain = 0
KCL2 100513Z 17007KT 13/11 A3013 RMK A01 T01250105  RH  088%=      5-min Rain = 0
KCL2 100514Z 16006KT 13/11 A3012 RMK A01 T01250106  RH  088%=      5-min Rain = 0
KCL2 100515Z 16006KT 13/11 A3012 RMK A01 T01250105  RH  088%=      5-min Rain = 0
KCL2 100516Z 16006KT 12/11 A3012 RMK A01 T01240105  RH  088%=      5-min Rain = 0
KCL2 100517Z 16007KT 12/10 A3012 RMK A01 T01230104  RH  088%=      5-min Rain = 0
KCL2 100518Z 17007KT 12/10 A3012 RMK A01 T01230104  RH  088%=      5-min Rain = 0
KCL2 100519Z 18007KT 12/11 A3012 RMK A01 T01230105  RH  089%=      5-min Rain = 0
KCL2 100520Z 17007KT 12/11 A3012 RMK A01 T01230105  RH  089%=      5-min Rain = 0
KCL2 100521Z 17006KT 12/11 A3012 RMK A01 T01230105  RH  089%=      5-min Rain = 0
KCL2 100522Z 17006KT 12/11 A3012 RMK A01 T01220105  RH  089%=      5-min Rain = 0
KCL2 100523Z 17007KT 12/11 A3012 RMK A01 T01230105  RH  089%=      5-min Rain = 0
KCL2 100524Z 17006KT 12/11 A3012 RMK A01 T01230105  RH  089%=      5-min Rain = 0
KCL2 100525Z 17007KT 12/11 A3012 RMK A01 T01220105  RH  089%=      5-min Rain = 0
KCL2 100526Z 17007KT 12/11 A3012 RMK A01 T01230105  RH  089%=      5-min Rain = 0
KCL2 100527Z 17007KT 12/11 A3012 RMK A01 T01230105  RH  089%=      5-min Rain = 0
KCL2 100528Z 17007KT 12/10 A3012 RMK A01 T01220104  RH  089%=      5-min Rain = 0
KCL2 100529Z 17008KT 12/11 A3012 RMK A01 T01220105  RH  089%=      5-min Rain = 0
KCL2 100530Z 17008KT 12/11 A3012 RMK A01 T01220105  RH  089%=      5-min Rain = 0
KCL2 100531Z 17008KT 12/11 A3012 RMK A01 T01230106  RH  089%=      5-min Rain = 0
KCL2 100532Z 16007KT 12/11 A3012 RMK A01 T01240106  RH  089%=      5-min Rain = 0
KCL2 100533Z 17008KT 12/11 A3012 RMK A01 T01230105  RH  089%=      5-min Rain = 0
KCL2 100534Z 17008KT 12/11 A3012 RMK A01 T01230105  RH  089%=      5-min Rain = 0
KCL2 100535Z 17008KT 12/11 A3012 RMK A01 T01230106  RH  089%=      5-min Rain = 0
KCL2 100536Z 17008KT 12/11 A3012 RMK A01 T01240107  RH  090%=      5-min Rain = 0
KCL2 100537Z 17007KT 12/11 A3012 RMK A01 T01240107  RH  089%=      5-min Rain = 0
KCL2 100538Z 17008KT 12/11 A3012 RMK A01 T01240107  RH  089%=      5-min Rain = 0
KCL2 100539Z 17008KT 13/11 A3012 RMK A01 T01250107  RH  089%=      5-min Rain = 0
KCL2 100540Z 17008KT 13/11 A3012 RMK A01 T01250107  RH  089%=      5-min Rain = 0
KCL2 100541Z 17007KT 13/11 A3012 RMK A01 T01250107  RH  089%=      5-min Rain = 0
KCL2 100542Z 18008KT 13/11 A3012 RMK A01 T01250107  RH  089%=      5-min Rain = 0
KCL2 100543Z 18008KT 12/11 A3012 RMK A01 T01240106  RH  089%=      5-min Rain = 0
KCL2 100544Z 18007KT 12/11 A3012 RMK A01 T01240106  RH  089%=      5-min Rain = 0
KCL2 100545Z 17007KT 12/11 A3012 RMK A01 T01240106  RH  089%=      5-min Rain = 0
KCL2 100546Z 17008KT 12/11 A3012 RMK A01 T01240106  RH  089%=      5-min Rain = 0
KCL2 100547Z 18008KT 12/11 A3012 RMK A01 T01230106  RH  089%=      5-min Rain = 0
KCL2 100548Z 18008KT 12/11 A3012 RMK A01 T01230105  RH  089%=      5-min Rain = 0
KCL2 100549Z 17008KT 12/11 A3012 RMK A01 T01230105  RH  089%=      5-min Rain = 0
KCL2 100550Z 17007KT 12/11 A3012 RMK A01 T01220106  RH  090%=      5-min Rain = 0
KCL2 100551Z 17007KT 12/11 A3012 RMK A01 T01230106  RH  090%=      5-min Rain = 0
KCL2 100552Z 17008KT 12/11 A3012 RMK A01 T01230106  RH  090%=      5-min Rain = 0
KCL2 100553Z 18008KT 12/11 A3012 RMK A01 T01230106  RH  090%=      5-min Rain = 0
KCL2 100554Z 17008KT 12/11 A3012 RMK A01 T01230106  RH  090%=      5-min Rain = 0
KCL2 100555Z 17008KT 12/11 A3012 RMK A01 T01230107  RH  090%=      5-min Rain = 0
KCL2 100556Z 17008KT 12/11 A3012 RMK A01 T01230107  RH  090%=      5-min Rain = 0
KCL2 100557Z 17008KT 12/11 A3012 RMK A01 T01230107  RH  090%=      5-min Rain = 0
KCL2 100558Z 17008KT 12/11 A3012 RMK A01 T01230107  RH  090%=      5-min Rain = 0
KCL2 100559Z 17009KT 12/11 A3012 RMK A01 T01230107  RH  090%=      5-min Rain = 0

Page generated in 0.0726 seconds.